Observation data for Colorado City on 12/09/2018      Previous  Date  Next       Current Mesonet Observations  Soil Data  Daily Summary Page  Observations in Plain Language
KCO2 090600Z 34005KT M02/M02 A3033 RMK A01 T10181023  RH  096%=      5-min Rain = 0
KCO2 090601Z 35005KT M02/M02 A3033 RMK A01 T10171023  RH  096%=      5-min Rain = 0
KCO2 090602Z 35005KT M02/M02 A3033 RMK A01 T10181024  RH  096%=      5-min Rain = 0
KCO2 090603Z 35005KT M02/M02 A3033 RMK A01 T10191024  RH  096%=      5-min Rain = 0
KCO2 090604Z 35005KT M02/M02 A3033 RMK A01 T10191024  RH  096%=      5-min Rain = 0
KCO2 090605Z 35005KT M02/M02 A3033 RMK A01 T10191024  RH  096%=      5-min Rain = 0
KCO2 090606Z 34005KT M02/M02 A3033 RMK A01 T10181023  RH  096%=      5-min Rain = 0
KCO2 090607Z 34005KT M02/M02 A3033 RMK A01 T10191024  RH  096%=      5-min Rain = 0
KCO2 090608Z 34005KT M02/M02 A3033 RMK A01 T10191024  RH  096%=      5-min Rain = 0
KCO2 090609Z 34005KT M02/M02 A3032 RMK A01 T10181023  RH  096%=      5-min Rain = 0
KCO2 090610Z 34005KT M02/M02 A3032 RMK A01 T10191024  RH  096%=      5-min Rain = 0
KCO2 090611Z 34005KT M02/M03 A3032 RMK A01 T10201025  RH  096%=      5-min Rain = 0
KCO2 090612Z 34005KT M02/M03 A3032 RMK A01 T10201025  RH  096%=      5-min Rain = 0
KCO2 090613Z 34005KT M02/M03 A3032 RMK A01 T10201025  RH  096%=      5-min Rain = 0
KCO2 090614Z 33005KT M02/M03 A3032 RMK A01 T10201025  RH  096%=      5-min Rain = 0
KCO2 090615Z 33005KT M02/M03 A3032 RMK A01 T10211026  RH  096%=      5-min Rain = 0
KCO2 090616Z 33006KT M02/M03 A3032 RMK A01 T10211026  RH  096%=      5-min Rain = 0
KCO2 090617Z 33006KT M02/M03 A3032 RMK A01 T10211026  RH  096%=      5-min Rain = 0
KCO2 090618Z 33006KT M02/M03 A3032 RMK A01 T10201025  RH  097%=      5-min Rain = 0
KCO2 090619Z 33006KT M02/M02 A3032 RMK A01 T10201024  RH  097%=      5-min Rain = 0
KCO2 090620Z 33005KT M02/M02 A3032 RMK A01 T10201024  RH  097%=      5-min Rain = 0
KCO2 090621Z 33005KT M02/M02 A3032 RMK A01 T10201024  RH  097%=      5-min Rain = 0
KCO2 090622Z 33006KT M02/M03 A3032 RMK A01 T10201025  RH  097%=      5-min Rain = 0
KCO2 090623Z 33006KT M02/M03 A3032 RMK A01 T10201025  RH  097%=      5-min Rain = 0
KCO2 090624Z 33006KT M02/M03 A3032 RMK A01 T10201025  RH  097%=      5-min Rain = 0
KCO2 090625Z 33006KT M02/M02 A3032 RMK A01 T10201024  RH  097%=      5-min Rain = 0
KCO2 090626Z 32005KT M02/M02 A3032 RMK A01 T10191023  RH  097%=      5-min Rain = 0
KCO2 090627Z 32005KT M02/M02 A3032 RMK A01 T10181023  RH  097%=      5-min Rain = 0
KCO2 090628Z 32005KT M02/M02 A3032 RMK A01 T10181023  RH  097%=      5-min Rain = 0
KCO2 090629Z 32005KT M02/M02 A3032 RMK A01 T10181022  RH  097%=      5-min Rain = 0
KCO2 090630Z 32005KT M02/M02 A3032 RMK A01 T10171022  RH  097%=      5-min Rain = 0
KCO2 090631Z 32006KT M02/M02 A3032 RMK A01 T10171022  RH  097%=      5-min Rain = 0
KCO2 090632Z 32006KT M02/M02 A3032 RMK A01 T10171021  RH  097%=      5-min Rain = 0
KCO2 090633Z 32006KT M02/M02 A3032 RMK A01 T10171021  RH  097%=      5-min Rain = 0
KCO2 090634Z 32006KT M02/M02 A3032 RMK A01 T10161021  RH  097%=      5-min Rain = 0
KCO2 090635Z 32006KT M02/M02 A3032 RMK A01 T10161020  RH  097%=      5-min Rain = 0
KCO2 090636Z 32007KT M02/M02 A3032 RMK A01 T10151020  RH  097%=      5-min Rain = 0
KCO2 090637Z 32007KT M02/M02 A3032 RMK A01 T10151020  RH  097%=      5-min Rain = 0
KCO2 090638Z 32006KT M02/M02 A3032 RMK A01 T10151020  RH  096%=      5-min Rain = 0
KCO2 090639Z 32006KT M02/M02 A3032 RMK A01 T10151020  RH  096%=      5-min Rain = 0
KCO2 090640Z 32006KT M01/M02 A3032 RMK A01 T10141019  RH  096%=      5-min Rain = 0
KCO2 090641Z 32006KT M01/M02 A3032 RMK A01 T10131019  RH  096%=      5-min Rain = 0
KCO2 090642Z 32006KT M01/M02 A3032 RMK A01 T10131018  RH  096%=      5-min Rain = 0
KCO2 090643Z 31006KT M01/M02 A3032 RMK A01 T10131019  RH  096%=      5-min Rain = 0
KCO2 090644Z 31006KT M01/M02 A3032 RMK A01 T10131019  RH  096%=      5-min Rain = 0
KCO2 090645Z 31006KT M01/M02 A3032 RMK A01 T10131019  RH  096%=      5-min Rain = 0
KCO2 090646Z 31006KT M01/M02 A3032 RMK A01 T10141020  RH  096%=      5-min Rain = 0
KCO2 090647Z 31005KT M01/M02 A3032 RMK A01 T10141020  RH  096%=      5-min Rain = 0
KCO2 090648Z 31005KT M01/M02 A3032 RMK A01 T10141020  RH  096%=      5-min Rain = 0
KCO2 090649Z 31004KT M01/M02 A3032 RMK A01 T10131019  RH  096%=      5-min Rain = 0
KCO2 090650Z 32004KT M01/M02 A3032 RMK A01 T10141020  RH  096%=      5-min Rain = 0
KCO2 090651Z 32004KT M01/M02 A3032 RMK A01 T10131019  RH  096%=      5-min Rain = 0
KCO2 090652Z 32004KT M01/M02 A3032 RMK A01 T10131019  RH  096%=      5-min Rain = 0
KCO2 090653Z 32004KT M01/M02 A3032 RMK A01 T10131019  RH  096%=      5-min Rain = 0
KCO2 090654Z 33004KT M01/M02 A3032 RMK A01 T10121018  RH  096%=      5-min Rain = 0
KCO2 090655Z 33004KT M01/M02 A3032 RMK A01 T10121018  RH  096%=      5-min Rain = 0
KCO2 090656Z 33005KT M01/M02 A3032 RMK A01 T10121018  RH  096%=      5-min Rain = 0
KCO2 090657Z 33005KT M01/M02 A3032 RMK A01 T10111017  RH  096%=      5-min Rain = 0
KCO2 090658Z 33005KT M01/M02 A3032 RMK A01 T10111017  RH  096%=      5-min Rain = 0
KCO2 090659Z 33005KT M01/M02 A3032 RMK A01 T10111017  RH  096%=      5-min Rain = 0
KCO2 090700Z 33005KT M01/M02 A3032 RMK A01 T10111018  RH  095%=      5-min Rain = 0
KCO2 090701Z 33005KT M01/M02 A3032 RMK A01 T10111018  RH  095%=      5-min Rain = 0
KCO2 090702Z 33005KT M01/M02 A3032 RMK A01 T10111018  RH  095%=      5-min Rain = 0
KCO2 090703Z 33005KT M01/M02 A3032 RMK A01 T10111018  RH  095%=      5-min Rain = 0
KCO2 090704Z 33005KT M01/M02 A3032 RMK A01 T10111018  RH  095%=      5-min Rain = 0
KCO2 090705Z 33005KT M01/M02 A3032 RMK A01 T10111018  RH  095%=      5-min Rain = 0
KCO2 090706Z 33005KT M01/M02 A3032 RMK A01 T10111018  RH  095%=      5-min Rain = 0
KCO2 090707Z 33006KT M01/M02 A3032 RMK A01 T10111018  RH  095%=      5-min Rain = 0
KCO2 090708Z 33005KT M01/M02 A3032 RMK A01 T10111017  RH  095%=      5-min Rain = 0
KCO2 090709Z 33005KT M01/M02 A3032 RMK A01 T10111017  RH  096%=      5-min Rain = 0
KCO2 090710Z 33005KT M01/M02 A3032 RMK A01 T10101017  RH  095%=      5-min Rain = 0
KCO2 090711Z 32005KT M01/M02 A3032 RMK A01 T10101017  RH  095%=      5-min Rain = 0
KCO2 090712Z 33006KT M01/M02 A3032 RMK A01 T10101017  RH  095%=      5-min Rain = 0
KCO2 090713Z 33006KT M01/M02 A3032 RMK A01 T10101017  RH  095%=      5-min Rain = 0
KCO2 090714Z 33006KT M01/M02 A3032 RMK A01 T10101017  RH  095%=      5-min Rain = 0
KCO2 090715Z 33006KT M01/M02 A3032 RMK A01 T10101017  RH  095%=      5-min Rain = 0
KCO2 090716Z 33006KT M01/M02 A3032 RMK A01 T10101017  RH  095%=      5-min Rain = 0
KCO2 090717Z 33006KT M01/M02 A3032 RMK A01 T10101017  RH  095%=      5-min Rain = 0
KCO2 090718Z 33006KT M01/M02 A3032 RMK A01 T10101017  RH  095%=      5-min Rain = 0
KCO2 090719Z 33006KT M01/M02 A3032 RMK A01 T10101017  RH  095%=      5-min Rain = 0
KCO2 090720Z 33006KT M01/M02 A3032 RMK A01 T10101017  RH  095%=      5-min Rain = 0
KCO2 090721Z 33006KT M01/M02 A3032 RMK A01 T10101017  RH  095%=      5-min Rain = 0
KCO2 090722Z 33006KT M01/M02 A3032 RMK A01 T10101017  RH  095%=      5-min Rain = 0
KCO2 090723Z 33005KT M01/M02 A3032 RMK A01 T10101017  RH  095%=      5-min Rain = 0
KCO2 090724Z 33006KT M01/M02 A3032 RMK A01 T10101017  RH  095%=      5-min Rain = 0
KCO2 090725Z 34005KT M01/M02 A3032 RMK A01 T10101017  RH  095%=      5-min Rain = 0
KCO2 090726Z 34006KT M01/M02 A3031 RMK A01 T10101017  RH  095%=      5-min Rain = 0
KCO2 090727Z 33005KT M01/M02 A3031 RMK A01 T10101016  RH  095%=      5-min Rain = 0
KCO2 090728Z 33005KT M01/M02 A3031 RMK A01 T10091015  RH  095%=      5-min Rain = 0
KCO2 090729Z 33005KT M01/M02 A3031 RMK A01 T10091015  RH  096%=      5-min Rain = 0
KCO2 090730Z 33005KT M01/M02 A3031 RMK A01 T10081015  RH  095%=      5-min Rain = 0
KCO2 090731Z 33005KT M01/M02 A3031 RMK A01 T10081015  RH  095%=      5-min Rain = 0
KCO2 090732Z 33005KT M01/M02 A3031 RMK A01 T10081015  RH  095%=      5-min Rain = 0
KCO2 090733Z 33005KT M01/M02 A3031 RMK A01 T10091016  RH  095%=      5-min Rain = 0
KCO2 090734Z 33005KT M01/M02 A3031 RMK A01 T10091016  RH  095%=      5-min Rain = 0
KCO2 090735Z 33005KT M01/M02 A3031 RMK A01 T10091015  RH  095%=      5-min Rain = 0
KCO2 090736Z 33004KT M01/M02 A3031 RMK A01 T10091015  RH  095%=      5-min Rain = 0
KCO2 090737Z 33004KT M01/M02 A3031 RMK A01 T10081015  RH  095%=      5-min Rain = 0
KCO2 090738Z 33004KT M01/M01 A3031 RMK A01 T10081014  RH  095%=      5-min Rain = 0
KCO2 090739Z 34004KT M01/M01 A3031 RMK A01 T10081014  RH  095%=      5-min Rain = 0
KCO2 090740Z 34004KT M01/M01 A3031 RMK A01 T10071014  RH  095%=      5-min Rain = 0
KCO2 090741Z 34004KT M01/M01 A3031 RMK A01 T10071014  RH  095%=      5-min Rain = 0
KCO2 090742Z 34004KT M01/M02 A3031 RMK A01 T10081015  RH  095%=      5-min Rain = 0
KCO2 090743Z 33004KT M01/M02 A3031 RMK A01 T10081015  RH  095%=      5-min Rain = 0
KCO2 090744Z 33004KT M01/M02 A3031 RMK A01 T10091016  RH  095%=      5-min Rain = 0
KCO2 090745Z 34004KT M01/M02 A3031 RMK A01 T10091016  RH  095%=      5-min Rain = 0
KCO2 090746Z 34004KT M01/M02 A3031 RMK A01 T10091016  RH  095%=      5-min Rain = 0
KCO2 090747Z 34004KT M01/M02 A3031 RMK A01 T10091016  RH  095%=      5-min Rain = 0
KCO2 090748Z 34004KT M01/M02 A3031 RMK A01 T10091017  RH  095%=      5-min Rain = 0
KCO2 090749Z 35004KT M01/M02 A3031 RMK A01 T10101017  RH  095%=      5-min Rain = 0
KCO2 090750Z 34004KT M01/M02 A3031 RMK A01 T10101017  RH  095%=      5-min Rain = 0
KCO2 090751Z 35004KT M01/M02 A3031 RMK A01 T10101018  RH  095%=      5-min Rain = 0
KCO2 090752Z 35005KT M01/M02 A3031 RMK A01 T10111018  RH  095%=      5-min Rain = 0
KCO2 090753Z 35005KT M01/M02 A3031 RMK A01 T10111018  RH  095%=      5-min Rain = 0
KCO2 090754Z 35005KT M01/M02 A3031 RMK A01 T10111018  RH  095%=      5-min Rain = 0
KCO2 090755Z 36005KT M01/M02 A3031 RMK A01 T10121019  RH  095%=      5-min Rain = 0
KCO2 090756Z 36006KT M01/M02 A3031 RMK A01 T10121018  RH  095%=      5-min Rain = 0
KCO2 090757Z 35005KT M01/M02 A3031 RMK A01 T10121018  RH  095%=      5-min Rain = 0
KCO2 090758Z 35006KT M01/M02 A3031 RMK A01 T10121018  RH  095%=      5-min Rain = 0
KCO2 090759Z 35006KT M01/M02 A3031 RMK A01 T10121018  RH  095%=      5-min Rain = 0
KCO2 090800Z 35006KT M01/M02 A3031 RMK A01 T10121018  RH  095%=      5-min Rain = 0
KCO2 090801Z 35006KT M01/M02 A3031 RMK A01 T10111018  RH  096%=      5-min Rain = 0
KCO2 090802Z 36006KT M01/M02 A3031 RMK A01 T10111018  RH  096%=      5-min Rain = 0
KCO2 090803Z 36006KT M01/M02 A3031 RMK A01 T10111018  RH  096%=      5-min Rain = 0
KCO2 090804Z 36006KT M01/M02 A3031 RMK A01 T10111018  RH  096%=      5-min Rain = 0
KCO2 090805Z 36007KT M01/M02 A3031 RMK A01 T10111018  RH  096%=      5-min Rain = 0
KCO2 090806Z 36007KT M01/M02 A3031 RMK A01 T10111017  RH  096%=      5-min Rain = 0
KCO2 090807Z 36006KT M01/M02 A3031 RMK A01 T10111017  RH  096%=      5-min Rain = 0
KCO2 090808Z 35006KT M01/M02 A3031 RMK A01 T10111017  RH  096%=      5-min Rain = 0
KCO2 090809Z 35006KT M01/M02 A3031 RMK A01 T10111017  RH  096%=      5-min Rain = 0
KCO2 090810Z 35006KT M01/M02 A3031 RMK A01 T10111017  RH  096%=      5-min Rain = 0
KCO2 090811Z 35006KT M01/M02 A3031 RMK A01 T10111017  RH  095%=      5-min Rain = 0
KCO2 090812Z 35006KT M01/M02 A3031 RMK A01 T10111018  RH  095%=      5-min Rain = 0
KCO2 090813Z 35006KT M01/M02 A3031 RMK A01 T10111018  RH  095%=      5-min Rain = 0
KCO2 090814Z 35006KT M01/M02 A3031 RMK A01 T10121018  RH  095%=      5-min Rain = 0
KCO2 090815Z 35005KT M01/M02 A3031 RMK A01 T10121019  RH  095%=      5-min Rain = 0
KCO2 090816Z 35005KT M01/M02 A3031 RMK A01 T10131019  RH  095%=      5-min Rain = 0
KCO2 090817Z 35006KT M01/M02 A3031 RMK A01 T10131020  RH  095%=      5-min Rain = 0
KCO2 090818Z 35006KT M01/M02 A3031 RMK A01 T10131020  RH  095%=      5-min Rain = 0
KCO2 090819Z 35006KT M01/M02 A3031 RMK A01 T10141020  RH  095%=      5-min Rain = 0
KCO2 090820Z 35006KT M01/M02 A3031 RMK A01 T10131020  RH  095%=      5-min Rain = 0
KCO2 090821Z 35006KT M01/M02 A3031 RMK A01 T10141020  RH  095%=      5-min Rain = 0
KCO2 090822Z 35006KT M01/M02 A3031 RMK A01 T10141021  RH  095%=      5-min Rain = 0
KCO2 090823Z 36006KT M01/M02 A3031 RMK A01 T10141020  RH  095%=      5-min Rain = 0
KCO2 090824Z 36006KT M01/M02 A3031 RMK A01 T10141020  RH  096%=      5-min Rain = 0
KCO2 090825Z 00006KT M01/M02 A3031 RMK A01 T10141020  RH  096%=      5-min Rain = 0
KCO2 090826Z 00006KT M01/M02 A3031 RMK A01 T10141020  RH  096%=      5-min Rain = 0
KCO2 090827Z 00006KT M01/M02 A3031 RMK A01 T10141020  RH  096%=      5-min Rain = 0
KCO2 090828Z 36006KT M01/M02 A3031 RMK A01 T10141020  RH  096%=      5-min Rain = 0
KCO2 090829Z 36007KT M01/M02 A3031 RMK A01 T10141020  RH  096%=      5-min Rain = 0
KCO2 090830Z 36007KT M01/M02 A3031 RMK A01 T10141020  RH  096%=      5-min Rain = 0
KCO2 090831Z 00007KT M01/M02 A3031 RMK A01 T10141020  RH  096%=      5-min Rain = 0
KCO2 090832Z 36007KT M01/M02 A3031 RMK A01 T10141020  RH  096%=      5-min Rain = 0
KCO2 090833Z 36007KT M02/M02 A3031 RMK A01 T10151020  RH  096%=      5-min Rain = 0
KCO2 090834Z 36007KT M02/M02 A3031 RMK A01 T10151020  RH  096%=      5-min Rain = 0
KCO2 090835Z 36007KT M02/M02 A3031 RMK A01 T10151020  RH  096%=      5-min Rain = 0
KCO2 090836Z 36007KT M02/M02 A3031 RMK A01 T10151020  RH  096%=      5-min Rain = 0
KCO2 090837Z 00007KT M01/M02 A3031 RMK A01 T10141020  RH  096%=      5-min Rain = 0
KCO2 090838Z 00007KT M02/M02 A3031 RMK A01 T10151020  RH  096%=      5-min Rain = 0
KCO2 090839Z 00007KT M02/M02 A3031 RMK A01 T10151020  RH  096%=      5-min Rain = 0
KCO2 090840Z 00007KT M01/M02 A3031 RMK A01 T10141020  RH  096%=      5-min Rain = 0
KCO2 090841Z 00007KT M02/M02 A3031 RMK A01 T10151020  RH  096%=      5-min Rain = 0
KCO2 090842Z 36007KT M01/M02 A3031 RMK A01 T10141020  RH  096%=      5-min Rain = 0
KCO2 090843Z 36007KT M01/M02 A3031 RMK A01 T10141020  RH  096%=      5-min Rain = 0
KCO2 090844Z 00007KT M01/M02 A3031 RMK A01 T10141019  RH  096%=      5-min Rain = 0
KCO2 090845Z 00007KT M01/M02 A3031 RMK A01 T10141019  RH  096%=      5-min Rain = 0
KCO2 090846Z 00007KT M01/M02 A3031 RMK A01 T10141020  RH  096%=      5-min Rain = 0
KCO2 090847Z 36007KT M01/M02 A3031 RMK A01 T10141020  RH  096%=      5-min Rain = 0
KCO2 090848Z 00007KT M01/M02 A3031 RMK A01 T10141019  RH  096%=      5-min Rain = 0
KCO2 090849Z 00007KT M01/M02 A3031 RMK A01 T10131018  RH  096%=      5-min Rain = 0
KCO2 090850Z 00007KT M01/M02 A3031 RMK A01 T10131019  RH  096%=      5-min Rain = 0
KCO2 090851Z 00007KT M01/M02 A3031 RMK A01 T10131018  RH  096%=      5-min Rain = 0
KCO2 090852Z 36007KT M01/M02 A3031 RMK A01 T10131019  RH  096%=      5-min Rain = 0
KCO2 090853Z 36008KT M01/M02 A3031 RMK A01 T10131019  RH  096%=      5-min Rain = 0
KCO2 090854Z 36008KT M01/M02 A3031 RMK A01 T10131018  RH  096%=      5-min Rain = 0
KCO2 090855Z 36008KT M01/M02 A3031 RMK A01 T10131018  RH  096%=      5-min Rain = 0
KCO2 090856Z 36008KT M01/M02 A3031 RMK A01 T10131018  RH  096%=      5-min Rain = 0
KCO2 090857Z 36007KT M01/M02 A3031 RMK A01 T10131018  RH  096%=      5-min Rain = 0
KCO2 090858Z 35007KT M01/M02 A3031 RMK A01 T10131018  RH  096%=      5-min Rain = 0
KCO2 090859Z 35007KT M01/M02 A3031 RMK A01 T10131018  RH  096%=      5-min Rain = 0
KCO2 090900Z 35007KT M01/M02 A3031 RMK A01 T10131019  RH  096%=      5-min Rain = 0
KCO2 090901Z 35007KT M01/M02 A3031 RMK A01 T10131019  RH  096%=      5-min Rain = 0
KCO2 090902Z 35007KT M01/M02 A3031 RMK A01 T10131019  RH  096%=      5-min Rain = 0
KCO2 090903Z 35007KT M01/M02 A3031 RMK A01 T10131019  RH  096%=      5-min Rain = 0
KCO2 090904Z 35006KT M01/M02 A3031 RMK A01 T10131019  RH  096%=      5-min Rain = 0
KCO2 090905Z 35006KT M01/M02 A3031 RMK A01 T10131019  RH  096%=      5-min Rain = 0
KCO2 090906Z 35006KT M01/M02 A3031 RMK A01 T10131019  RH  096%=      5-min Rain = 0
KCO2 090907Z 35006KT M01/M02 A3031 RMK A01 T10141020  RH  096%=      5-min Rain = 0
KCO2 090908Z 34006KT M01/M02 A3031 RMK A01 T10141020  RH  096%=      5-min Rain = 0
KCO2 090909Z 34006KT M01/M02 A3031 RMK A01 T10141020  RH  096%=      5-min Rain = 0
KCO2 090910Z 34006KT M01/M02 A3031 RMK A01 T10141020  RH  096%=      5-min Rain = 0
KCO2 090911Z 34006KT M02/M02 A3031 RMK A01 T10151020  RH  096%=      5-min Rain = 0
KCO2 090912Z 34006KT M01/M02 A3031 RMK A01 T10141020  RH  096%=      5-min Rain = 0
KCO2 090913Z 34006KT M02/M02 A3031 RMK A01 T10151021  RH  096%=      5-min Rain = 0
KCO2 090914Z 34007KT M02/M02 A3031 RMK A01 T10151020  RH  096%=      5-min Rain = 0
KCO2 090915Z 34007KT M02/M02 A3031 RMK A01 T10151021  RH  096%=      5-min Rain = 0
KCO2 090916Z 34006KT M02/M02 A3031 RMK A01 T10151021  RH  096%=      5-min Rain = 0
KCO2 090917Z 34006KT M02/M02 A3031 RMK A01 T10161022  RH  096%=      5-min Rain = 0
KCO2 090918Z 34006KT M02/M02 A3031 RMK A01 T10161022  RH  096%=      5-min Rain = 0
KCO2 090919Z 34006KT M02/M02 A3031 RMK A01 T10161022  RH  096%=      5-min Rain = 0
KCO2 090920Z 34006KT M02/M02 A3031 RMK A01 T10161022  RH  096%=      5-min Rain = 0
KCO2 090921Z 33005KT M02/M02 A3031 RMK A01 T10171023  RH  096%=      5-min Rain = 0
KCO2 090922Z 33005KT M02/M02 A3031 RMK A01 T10171023  RH  096%=      5-min Rain = 0
KCO2 090923Z 33005KT M02/M02 A3031 RMK A01 T10171023  RH  096%=      5-min Rain = 0
KCO2 090924Z 33005KT M02/M02 A3031 RMK A01 T10181024  RH  096%=      5-min Rain = 0
KCO2 090925Z 33004KT M02/M02 A3031 RMK A01 T10181024  RH  096%=      5-min Rain = 0
KCO2 090926Z 32004KT M02/M03 A3031 RMK A01 T10191025  RH  096%=      5-min Rain = 0
KCO2 090927Z 32004KT M02/M03 A3031 RMK A01 T10201026  RH  096%=      5-min Rain = 0
KCO2 090928Z 32004KT M02/M03 A3031 RMK A01 T10211027  RH  096%=      5-min Rain = 0
KCO2 090929Z 32004KT M02/M03 A3031 RMK A01 T10221028  RH  096%=      5-min Rain = 0
KCO2 090930Z 32004KT M02/M03 A3031 RMK A01 T10231029  RH  095%=      5-min Rain = 0
KCO2 090931Z 32003KT M02/M03 A3031 RMK A01 T10231029  RH  096%=      5-min Rain = 0
KCO2 090932Z 32003KT M02/M03 A3031 RMK A01 T10241030  RH  096%=      5-min Rain = 0
KCO2 090933Z 32003KT M02/M03 A3031 RMK A01 T10241030  RH  096%=      5-min Rain = 0
KCO2 090934Z 32004KT M02/M03 A3031 RMK A01 T10241029  RH  096%=      5-min Rain = 0
KCO2 090935Z 32004KT M02/M03 A3031 RMK A01 T10231029  RH  096%=      5-min Rain = 0
KCO2 090936Z 32004KT M02/M03 A3031 RMK A01 T10231028  RH  096%=      5-min Rain = 0
KCO2 090937Z 33004KT M02/M03 A3031 RMK A01 T10221028  RH  096%=      5-min Rain = 0
KCO2 090938Z 33004KT M02/M03 A3031 RMK A01 T10231028  RH  096%=      5-min Rain = 0
KCO2 090939Z 33004KT M02/M03 A3031 RMK A01 T10221027  RH  096%=      5-min Rain = 0
KCO2 090940Z 33004KT M02/M03 A3031 RMK A01 T10221027  RH  096%=      5-min Rain = 0
KCO2 090941Z 33004KT M02/M03 A3031 RMK A01 T10231028  RH  096%=      5-min Rain = 0
KCO2 090942Z 33004KT M02/M03 A3032 RMK A01 T10231028  RH  096%=      5-min Rain = 0
KCO2 090943Z 34004KT M02/M03 A3032 RMK A01 T10231028  RH  096%=      5-min Rain = 0
KCO2 090944Z 33004KT M02/M03 A3032 RMK A01 T10241029  RH  096%=      5-min Rain = 0
KCO2 090945Z 33004KT M03/M03 A3032 RMK A01 T10251030  RH  096%=      5-min Rain = 0
KCO2 090946Z 33004KT M03/M03 A3032 RMK A01 T10251030  RH  096%=      5-min Rain = 0
KCO2 090947Z 33004KT M03/M03 A3032 RMK A01 T10251030  RH  096%=      5-min Rain = 0
KCO2 090948Z 34005KT M03/M03 A3032 RMK A01 T10261031  RH  096%=      5-min Rain = 0
KCO2 090949Z 34005KT M03/M03 A3032 RMK A01 T10261031  RH  096%=      5-min Rain = 0
KCO2 090950Z 34005KT M03/M03 A3032 RMK A01 T10261032  RH  096%=      5-min Rain = 0
KCO2 090951Z 34006KT M03/M03 A3031 RMK A01 T10271032  RH  096%=      5-min Rain = 0
KCO2 090952Z 34006KT M03/M03 A3031 RMK A01 T10281033  RH  096%=      5-min Rain = 0
KCO2 090953Z 34006KT M03/M03 A3031 RMK A01 T10281033  RH  096%=      5-min Rain = 0
KCO2 090954Z 34006KT M03/M03 A3031 RMK A01 T10281033  RH  096%=      5-min Rain = 0
KCO2 090955Z 35006KT M03/M03 A3032 RMK A01 T10281033  RH  096%=      5-min Rain = 0
KCO2 090956Z 35006KT M03/M03 A3032 RMK A01 T10281033  RH  096%=      5-min Rain = 0
KCO2 090957Z 35006KT M03/M03 A3032 RMK A01 T10271032  RH  096%=      5-min Rain = 0
KCO2 090958Z 35006KT M03/M03 A3031 RMK A01 T10271032  RH  097%=      5-min Rain = 0
KCO2 090959Z 35006KT M03/M03 A3031 RMK A01 T10261031  RH  097%=      5-min Rain = 0
KCO2 091000Z 36006KT M03/M03 A3031 RMK A01 T10251030  RH  097%=      5-min Rain = 0
KCO2 091001Z 35007KT M03/M03 A3031 RMK A01 T10251029  RH  097%=      5-min Rain = 0
KCO2 091002Z 35007KT M02/M03 A3031 RMK A01 T10241029  RH  097%=      5-min Rain = 0
KCO2 091003Z 36007KT M02/M03 A3031 RMK A01 T10241028  RH  097%=      5-min Rain = 0
KCO2 091004Z 35007KT M02/M03 A3031 RMK A01 T10231028  RH  097%=      5-min Rain = 0
KCO2 091005Z 36007KT M02/M03 A3031 RMK A01 T10231027  RH  097%=      5-min Rain = 0
KCO2 091006Z 00007KT M02/M03 A3031 RMK A01 T10231027  RH  097%=      5-min Rain = 0
KCO2 091007Z 00007KT M02/M03 A3031 RMK A01 T10231027  RH  097%=      5-min Rain = 0
KCO2 091008Z 00007KT M02/M03 A3031 RMK A01 T10221027  RH  097%=      5-min Rain = 0
KCO2 091009Z 00006KT M02/M03 A3031 RMK A01 T10221026  RH  097%=      5-min Rain = 0
KCO2 091010Z 00006KT M02/M03 A3031 RMK A01 T10211026  RH  097%=      5-min Rain = 0
KCO2 091011Z 36006KT M02/M03 A3031 RMK A01 T10211026  RH  097%=      5-min Rain = 0
KCO2 091012Z 36006KT M02/M03 A3031 RMK A01 T10211025  RH  097%=      5-min Rain = 0
KCO2 091013Z 35005KT M02/M03 A3031 RMK A01 T10211026  RH  097%=      5-min Rain = 0
KCO2 091014Z 35005KT M02/M03 A3031 RMK A01 T10211026  RH  096%=      5-min Rain = 0
KCO2 091015Z 35005KT M02/M03 A3031 RMK A01 T10211026  RH  096%=      5-min Rain = 0
KCO2 091016Z 35006KT M02/M03 A3031 RMK A01 T10221027  RH  096%=      5-min Rain = 0
KCO2 091017Z 35006KT M02/M03 A3031 RMK A01 T10221027  RH  096%=      5-min Rain = 0
KCO2 091018Z 35006KT M02/M03 A3031 RMK A01 T10231028  RH  096%=      5-min Rain = 0
KCO2 091019Z 35006KT M02/M03 A3031 RMK A01 T10231028  RH  096%=      5-min Rain = 0
KCO2 091020Z 35006KT M02/M03 A3031 RMK A01 T10241029  RH  096%=      5-min Rain = 0
KCO2 091021Z 35006KT M02/M03 A3031 RMK A01 T10241030  RH  096%=      5-min Rain = 0
KCO2 091022Z 35006KT M03/M03 A3031 RMK A01 T10251031  RH  096%=      5-min Rain = 0
KCO2 091023Z 35006KT M03/M03 A3031 RMK A01 T10251031  RH  096%=      5-min Rain = 0
KCO2 091024Z 35006KT M03/M03 A3032 RMK A01 T10261031  RH  096%=      5-min Rain = 0
KCO2 091025Z 35006KT M03/M03 A3032 RMK A01 T10261032  RH  096%=      5-min Rain = 0
KCO2 091026Z 35006KT M03/M03 A3032 RMK A01 T10261032  RH  096%=      5-min Rain = 0
KCO2 091027Z 35006KT M03/M03 A3032 RMK A01 T10261032  RH  096%=      5-min Rain = 0
KCO2 091028Z 35006KT M03/M03 A3032 RMK A01 T10261031  RH  096%=      5-min Rain = 0
KCO2 091029Z 35006KT M03/M03 A3032 RMK A01 T10261031  RH  096%=      5-min Rain = 0
KCO2 091030Z 34006KT M03/M03 A3032 RMK A01 T10251030  RH  096%=      5-min Rain = 0
KCO2 091031Z 34006KT M03/M03 A3032 RMK A01 T10251030  RH  096%=      5-min Rain = 0
KCO2 091032Z 34006KT M02/M03 A3032 RMK A01 T10241029  RH  096%=      5-min Rain = 0
KCO2 091033Z 34006KT M02/M03 A3032 RMK A01 T10241029  RH  097%=      5-min Rain = 0
KCO2 091034Z 34006KT M02/M03 A3032 RMK A01 T10241029  RH  097%=      5-min Rain = 0
KCO2 091035Z 34006KT M02/M03 A3032 RMK A01 T10241029  RH  096%=      5-min Rain = 0
KCO2 091036Z 34006KT M03/M03 A3032 RMK A01 T10251030  RH  096%=      5-min Rain = 0
KCO2 091037Z 34006KT M03/M03 A3032 RMK A01 T10251030  RH  096%=      5-min Rain = 0
KCO2 091038Z 34006KT M03/M03 A3032 RMK A01 T10261031  RH  096%=      5-min Rain = 0
KCO2 091039Z 34006KT M03/M03 A3032 RMK A01 T10261031  RH  096%=      5-min Rain = 0
KCO2 091040Z 34006KT M03/M03 A3032 RMK A01 T10261031  RH  096%=      5-min Rain = 0
KCO2 091041Z 34006KT M03/M03 A3032 RMK A01 T10261031  RH  096%=      5-min Rain = 0
KCO2 091042Z 35006KT M03/M03 A3032 RMK A01 T10261032  RH  096%=      5-min Rain = 0
KCO2 091043Z 35006KT M03/M03 A3032 RMK A01 T10271032  RH  096%=      5-min Rain = 0
KCO2 091044Z 35006KT M03/M03 A3032 RMK A01 T10281033  RH  096%=      5-min Rain = 0
KCO2 091045Z 35005KT M03/M03 A3032 RMK A01 T10281033  RH  096%=      5-min Rain = 0
KCO2 091046Z 35005KT M03/M03 A3032 RMK A01 T10281033  RH  096%=      5-min Rain = 0
KCO2 091047Z 35005KT M03/M03 A3032 RMK A01 T10281034  RH  096%=      5-min Rain = 0
KCO2 091048Z 35005KT M03/M03 A3032 RMK A01 T10281033  RH  096%=      5-min Rain = 0
KCO2 091049Z 35005KT M03/M03 A3032 RMK A01 T10291034  RH  096%=      5-min Rain = 0
KCO2 091050Z 35006KT M03/M03 A3032 RMK A01 T10291034  RH  096%=      5-min Rain = 0
KCO2 091051Z 35006KT M03/M03 A3032 RMK A01 T10291034  RH  096%=      5-min Rain = 0
KCO2 091052Z 35006KT M03/M04 A3032 RMK A01 T10301035  RH  096%=      5-min Rain = 0
KCO2 091053Z 35007KT M03/M04 A3032 RMK A01 T10301035  RH  096%=      5-min Rain = 0
KCO2 091054Z 35007KT M03/M04 A3032 RMK A01 T10301035  RH  096%=      5-min Rain = 0
KCO2 091055Z 35007KT M03/M04 A3032 RMK A01 T10311036  RH  096%=      5-min Rain = 0
KCO2 091056Z 36007KT M03/M04 A3032 RMK A01 T10311036  RH  096%=      5-min Rain = 0
KCO2 091057Z 00007KT M03/M04 A3032 RMK A01 T10301035  RH  096%=      5-min Rain = 0
KCO2 091058Z 00007KT M03/M04 A3032 RMK A01 T10301035  RH  097%=      5-min Rain = 0
KCO2 091059Z 00007KT M03/M03 A3032 RMK A01 T10291033  RH  097%=      5-min Rain = 0
KCO2 091100Z 00007KT M03/M03 A3032 RMK A01 T10281032  RH  097%=      5-min Rain = 0
KCO2 091101Z 00007KT M03/M03 A3032 RMK A01 T10271031  RH  097%=      5-min Rain = 0
KCO2 091102Z 00007KT M03/M03 A3032 RMK A01 T10261030  RH  097%=      5-min Rain = 0
KCO2 091103Z 00007KT M03/M03 A3032 RMK A01 T10251029  RH  097%=      5-min Rain = 0
KCO2 091104Z 00007KT M02/M03 A3032 RMK A01 T10241028  RH  097%=      5-min Rain = 0
KCO2 091105Z 00007KT M02/M03 A3032 RMK A01 T10241028  RH  097%=      5-min Rain = 0
KCO2 091106Z 00007KT M02/M03 A3032 RMK A01 T10231027  RH  097%=      5-min Rain = 0
KCO2 091107Z 00007KT M02/M03 A3032 RMK A01 T10231027  RH  097%=      5-min Rain = 0
KCO2 091108Z 00007KT M02/M03 A3032 RMK A01 T10231027  RH  097%=      5-min Rain = 0
KCO2 091109Z 00007KT M02/M03 A3032 RMK A01 T10231027  RH  097%=      5-min Rain = 0
KCO2 091110Z 00007KT M02/M03 A3032 RMK A01 T10221026  RH  097%=      5-min Rain = 0
KCO2 091111Z 00007KT M02/M03 A3032 RMK A01 T10221026  RH  097%=      5-min Rain = 0
KCO2 091112Z 00006KT M02/M03 A3032 RMK A01 T10221026  RH  097%=      5-min Rain = 0
KCO2 091113Z 00007KT M02/M03 A3033 RMK A01 T10221026  RH  097%=      5-min Rain = 0
KCO2 091114Z 00007KT M02/M03 A3033 RMK A01 T10221027  RH  097%=      5-min Rain = 0
KCO2 091115Z 00007KT M02/M03 A3033 RMK A01 T10221026  RH  097%=      5-min Rain = 0
KCO2 091116Z 00007KT M02/M03 A3033 RMK A01 T10221026  RH  097%=      5-min Rain = 0
KCO2 091117Z 00007KT M02/M03 A3033 RMK A01 T10211026  RH  097%=      5-min Rain = 0
KCO2 091118Z 00007KT M02/M03 A3033 RMK A01 T10211026  RH  096%=      5-min Rain = 0
KCO2 091119Z 00007KT M02/M03 A3033 RMK A01 T10211026  RH  096%=      5-min Rain = 0
KCO2 091120Z 01008KT M02/M03 A3033 RMK A01 T10201026  RH  096%=      5-min Rain = 0
KCO2 091121Z 00007KT M02/M03 A3033 RMK A01 T10201025  RH  096%=      5-min Rain = 0
KCO2 091122Z 00007KT M02/M03 A3033 RMK A01 T10191025  RH  096%=      5-min Rain = 0
KCO2 091123Z 01007KT M02/M03 A3033 RMK A01 T10191025  RH  096%=      5-min Rain = 0
KCO2 091124Z 01007KT M02/M03 A3033 RMK A01 T10191025  RH  096%=      5-min Rain = 0
KCO2 091125Z 01007KT M02/M03 A3033 RMK A01 T10191025  RH  096%=      5-min Rain = 0
KCO2 091126Z 01007KT M02/M03 A3033 RMK A01 T10191025  RH  095%=      5-min Rain = 0
KCO2 091127Z 01007KT M02/M03 A3033 RMK A01 T10191026  RH  095%=      5-min Rain = 0
KCO2 091128Z 01007KT M02/M03 A3033 RMK A01 T10191026  RH  095%=      5-min Rain = 0
KCO2 091129Z 01007KT M02/M03 A3033 RMK A01 T10191026  RH  095%=      5-min Rain = 0
KCO2 091130Z 02007KT M02/M03 A3033 RMK A01 T10191027  RH  095%=      5-min Rain = 0
KCO2 091131Z 02007KT M02/M03 A3033 RMK A01 T10201027  RH  095%=      5-min Rain = 0
KCO2 091132Z 02007KT M02/M03 A3033 RMK A01 T10201027  RH  095%=      5-min Rain = 0
KCO2 091133Z 02007KT M02/M03 A3033 RMK A01 T10201027  RH  095%=      5-min Rain = 0
KCO2 091134Z 02007KT M02/M03 A3033 RMK A01 T10201027  RH  095%=      5-min Rain = 0
KCO2 091135Z 02007KT M02/M03 A3033 RMK A01 T10201027  RH  095%=      5-min Rain = 0
KCO2 091136Z 01007KT M02/M03 A3033 RMK A01 T10201027  RH  095%=      5-min Rain = 0
KCO2 091137Z 01007KT M02/M03 A3033 RMK A01 T10201027  RH  095%=      5-min Rain = 0
KCO2 091138Z 01007KT M02/M03 A3033 RMK A01 T10191027  RH  095%=      5-min Rain = 0
KCO2 091139Z 01007KT M02/M03 A3034 RMK A01 T10191026  RH  095%=      5-min Rain = 0
KCO2 091140Z 01007KT M02/M03 A3034 RMK A01 T10191026  RH  095%=      5-min Rain = 0
KCO2 091141Z 01008KT M02/M03 A3034 RMK A01 T10181026  RH  095%=      5-min Rain = 0
KCO2 091142Z 01007KT M02/M03 A3034 RMK A01 T10191026  RH  095%=      5-min Rain = 0
KCO2 091143Z 01008KT M02/M03 A3034 RMK A01 T10181026  RH  095%=      5-min Rain = 0
KCO2 091144Z 00008KT M02/M03 A3034 RMK A01 T10181026  RH  095%=      5-min Rain = 0
KCO2 091145Z 00007KT M02/M03 A3034 RMK A01 T10181026  RH  094%=      5-min Rain = 0
KCO2 091146Z 00007KT M02/M03 A3034 RMK A01 T10191027  RH  094%=      5-min Rain = 0
KCO2 091147Z 01007KT M02/M03 A3034 RMK A01 T10191026  RH  094%=      5-min Rain = 0
KCO2 091148Z 01007KT M02/M03 A3034 RMK A01 T10191027  RH  094%=      5-min Rain = 0
KCO2 091149Z 01007KT M02/M03 A3034 RMK A01 T10191027  RH  094%=      5-min Rain = 0
KCO2 091150Z 01007KT M02/M03 A3034 RMK A01 T10201028  RH  094%=      5-min Rain = 0
KCO2 091151Z 01007KT M02/M03 A3034 RMK A01 T10201028  RH  094%=      5-min Rain = 0
KCO2 091152Z 01007KT M02/M03 A3034 RMK A01 T10201028  RH  094%=      5-min Rain = 0
KCO2 091153Z 01007KT M02/M03 A3034 RMK A01 T10201029  RH  094%=      5-min Rain = 0
KCO2 091154Z 01007KT M02/M03 A3034 RMK A01 T10211029  RH  094%=      5-min Rain = 0
KCO2 091155Z 01007KT M02/M03 A3034 RMK A01 T10211029  RH  094%=      5-min Rain = 0
KCO2 091156Z 01007KT M02/M03 A3034 RMK A01 T10211029  RH  094%=      5-min Rain = 0
KCO2 091157Z 01007KT M02/M03 A3034 RMK A01 T10211029  RH  094%=      5-min Rain = 0
KCO2 091158Z 01007KT M02/M03 A3034 RMK A01 T10211029  RH  094%=      5-min Rain = 0
KCO2 091159Z 01007KT M02/M03 A3034 RMK A01 T10211029  RH  094%=      5-min Rain = 0
KCO2 091200Z 01007KT M02/M03 A3034 RMK A01 T10221029  RH  094%=      5-min Rain = 0
KCO2 091201Z 01007KT M02/M03 A3034 RMK A01 T10221029  RH  094%=      5-min Rain = 0
KCO2 091202Z 01006KT M02/M03 A3034 RMK A01 T10211029  RH  095%=      5-min Rain = 0
KCO2 091203Z 01007KT M02/M03 A3034 RMK A01 T10221029  RH  095%=      5-min Rain = 0
KCO2 091204Z 01006KT M02/M03 A3034 RMK A01 T10221029  RH  095%=      5-min Rain = 0
KCO2 091205Z 01006KT M02/M03 A3034 RMK A01 T10221029  RH  094%=      5-min Rain = 0
KCO2 091206Z 01006KT M02/M03 A3034 RMK A01 T10221030  RH  094%=      5-min Rain = 0
KCO2 091207Z 01006KT M02/M03 A3034 RMK A01 T10221030  RH  094%=      5-min Rain = 0
KCO2 091208Z 01006KT M02/M03 A3034 RMK A01 T10231031  RH  094%=      5-min Rain = 0
KCO2 091209Z 01006KT M02/M03 A3034 RMK A01 T10231030  RH  094%=      5-min Rain = 0
KCO2 091210Z 01006KT M02/M03 A3034 RMK A01 T10231031  RH  094%=      5-min Rain = 0
KCO2 091211Z 01006KT M02/M03 A3034 RMK A01 T10231031  RH  094%=      5-min Rain = 0
KCO2 091212Z 01007KT M02/M03 A3034 RMK A01 T10231031  RH  094%=      5-min Rain = 0
KCO2 091213Z 01007KT M02/M03 A3034 RMK A01 T10231031  RH  094%=      5-min Rain = 0
KCO2 091214Z 01007KT M02/M03 A3034 RMK A01 T10231031  RH  094%=      5-min Rain = 0
KCO2 091215Z 01007KT M02/M03 A3034 RMK A01 T10241032  RH  094%=      5-min Rain = 0
KCO2 091216Z 01007KT M02/M03 A3034 RMK A01 T10241032  RH  094%=      5-min Rain = 0
KCO2 091217Z 01007KT M02/M03 A3034 RMK A01 T10241032  RH  094%=      5-min Rain = 0
KCO2 091218Z 01007KT M02/M03 A3034 RMK A01 T10241032  RH  094%=      5-min Rain = 0
KCO2 091219Z 01007KT M02/M03 A3035 RMK A01 T10241032  RH  094%=      5-min Rain = 0
KCO2 091220Z 01007KT M02/M03 A3035 RMK A01 T10241032  RH  094%=      5-min Rain = 0
KCO2 091221Z 01007KT M02/M03 A3035 RMK A01 T10241032  RH  094%=      5-min Rain = 0
KCO2 091222Z 00007KT M02/M03 A3035 RMK A01 T10241032  RH  094%=      5-min Rain = 0
KCO2 091223Z 00007KT M02/M03 A3035 RMK A01 T10241032  RH  094%=      5-min Rain = 0
KCO2 091224Z 00008KT M02/M03 A3035 RMK A01 T10241032  RH  094%=      5-min Rain = 0
KCO2 091225Z 00008KT M02/M03 A3035 RMK A01 T10241033  RH  094%=      5-min Rain = 0
KCO2 091226Z 00007KT M02/M03 A3035 RMK A01 T10241033  RH  094%=      5-min Rain = 0
KCO2 091227Z 01007KT M02/M03 A3035 RMK A01 T10241033  RH  093%=      5-min Rain = 0
KCO2 091228Z 00008KT M02/M03 A3035 RMK A01 T10241034  RH  093%=      5-min Rain = 0
KCO2 091229Z 01008KT M02/M03 A3035 RMK A01 T10241034  RH  093%=      5-min Rain = 0
KCO2 091230Z 01008KT M02/M03 A3035 RMK A01 T10241034  RH  093%=      5-min Rain = 0
KCO2 091231Z 01008KT M02/M03 A3035 RMK A01 T10241034  RH  093%=      5-min Rain = 0
KCO2 091232Z 01008KT M02/M03 A3035 RMK A01 T10231033  RH  093%=      5-min Rain = 0
KCO2 091233Z 01008KT M02/M03 A3035 RMK A01 T10231033  RH  093%=      5-min Rain = 0
KCO2 091234Z 01008KT M02/M03 A3035 RMK A01 T10231033  RH  092%=      5-min Rain = 0
KCO2 091235Z 01008KT M02/M03 A3035 RMK A01 T10221033  RH  092%=      5-min Rain = 0
KCO2 091236Z 01008KT M02/M03 A3035 RMK A01 T10221033  RH  092%=      5-min Rain = 0
KCO2 091237Z 01008KT M02/M03 A3035 RMK A01 T10221034  RH  092%=      5-min Rain = 0
KCO2 091238Z 01008KT M02/M03 A3035 RMK A01 T10221034  RH  092%=      5-min Rain = 0
KCO2 091239Z 01008KT M02/M03 A3035 RMK A01 T10221034  RH  092%=      5-min Rain = 0
KCO2 091240Z 01008KT M02/M03 A3035 RMK A01 T10221034  RH  092%=      5-min Rain = 0
KCO2 091241Z 01008KT M02/M03 A3035 RMK A01 T10221034  RH  092%=      5-min Rain = 0
KCO2 091242Z 01008KT M02/M03 A3035 RMK A01 T10221034  RH  092%=      5-min Rain = 0
KCO2 091243Z 01008KT M02/M03 A3035 RMK A01 T10221034  RH  092%=      5-min Rain = 0
KCO2 091244Z 01008KT M02/M03 A3035 RMK A01 T10221034  RH  092%=      5-min Rain = 0
KCO2 091245Z 01008KT M02/M03 A3035 RMK A01 T10221034  RH  092%=      5-min Rain = 0
KCO2 091246Z 01008KT M02/M03 A3035 RMK A01 T10221034  RH  092%=      5-min Rain = 0
KCO2 091247Z 01008KT M02/M03 A3035 RMK A01 T10221034  RH  092%=      5-min Rain = 0
KCO2 091248Z 01008KT M02/M03 A3035 RMK A01 T10221034  RH  092%=      5-min Rain = 0
KCO2 091249Z 01009KT M02/M04 A3035 RMK A01 T10221035  RH  091%=      5-min Rain = 0
KCO2 091250Z 01009KT M02/M04 A3036 RMK A01 T10221035  RH  091%=      5-min Rain = 0
KCO2 091251Z 01008KT M02/M04 A3036 RMK A01 T10221035  RH  091%=      5-min Rain = 0
KCO2 091252Z 01008KT M02/M04 A3036 RMK A01 T10221035  RH  091%=      5-min Rain = 0
KCO2 091253Z 01008KT M02/M04 A3036 RMK A01 T10231035  RH  091%=      5-min Rain = 0
KCO2 091254Z 01008KT M02/M04 A3036 RMK A01 T10231035  RH  091%=      5-min Rain = 0
KCO2 091255Z 01008KT M02/M04 A3036 RMK A01 T10231035  RH  091%=      5-min Rain = 0
KCO2 091256Z 01008KT M02/M04 A3036 RMK A01 T10231035  RH  091%=      5-min Rain = 0
KCO2 091257Z 01008KT M02/M04 A3036 RMK A01 T10231035  RH  091%=      5-min Rain = 0
KCO2 091258Z 01008KT M02/M04 A3036 RMK A01 T10231035  RH  091%=      5-min Rain = 0
KCO2 091259Z 01008KT M02/M04 A3036 RMK A01 T10231035  RH  091%=      5-min Rain = 0
KCO2 091300Z 01008KT M02/M04 A3036 RMK A01 T10231035  RH  091%=      5-min Rain = 0
KCO2 091301Z 01008KT M02/M04 A3036 RMK A01 T10231036  RH  091%=      5-min Rain = 0
KCO2 091302Z 00008KT M02/M04 A3036 RMK A01 T10231036  RH  091%=      5-min Rain = 0
KCO2 091303Z 01008KT M02/M04 A3036 RMK A01 T10231036  RH  091%=      5-min Rain = 0
KCO2 091304Z 01008KT M02/M04 A3036 RMK A01 T10241036  RH  091%=      5-min Rain = 0
KCO2 091305Z 01008KT M02/M04 A3036 RMK A01 T10241036  RH  091%=      5-min Rain = 0
KCO2 091306Z 01008KT M02/M04 A3036 RMK A01 T10241037  RH  091%=      5-min Rain = 0
KCO2 091307Z 01008KT M02/M04 A3036 RMK A01 T10241036  RH  091%=      5-min Rain = 0
KCO2 091308Z 01008KT M02/M04 A3036 RMK A01 T10241036  RH  092%=      5-min Rain = 0
KCO2 091309Z 01008KT M02/M04 A3036 RMK A01 T10241036  RH  092%=      5-min Rain = 0
KCO2 091310Z 01008KT M02/M04 A3036 RMK A01 T10241036  RH  092%=      5-min Rain = 0
KCO2 091311Z 01008KT M02/M04 A3036 RMK A01 T10241036  RH  092%=      5-min Rain = 0
KCO2 091312Z 01008KT M02/M04 A3036 RMK A01 T10241036  RH  092%=      5-min Rain = 0
KCO2 091313Z 01008KT M02/M04 A3036 RMK A01 T10241036  RH  092%=      5-min Rain = 0
KCO2 091314Z 01008KT M02/M04 A3036 RMK A01 T10241036  RH  092%=      5-min Rain = 0
KCO2 091315Z 01008KT M02/M04 A3036 RMK A01 T10241036  RH  092%=      5-min Rain = 0
KCO2 091316Z 01007KT M02/M04 A3036 RMK A01 T10241036  RH  092%=      5-min Rain = 0
KCO2 091317Z 01008KT M02/M04 A3036 RMK A01 T10241036  RH  092%=      5-min Rain = 0
KCO2 091318Z 01008KT M02/M04 A3036 RMK A01 T10241036  RH  092%=      5-min Rain = 0
KCO2 091319Z 01008KT M02/M04 A3036 RMK A01 T10241036  RH  092%=      5-min Rain = 0
KCO2 091320Z 01008KT M02/M04 A3037 RMK A01 T10241036  RH  092%=      5-min Rain = 0
KCO2 091321Z 01007KT M02/M04 A3037 RMK A01 T10241036  RH  091%=      5-min Rain = 0
KCO2 091322Z 01007KT M03/M04 A3037 RMK A01 T10251037  RH  092%=      5-min Rain = 0
KCO2 091323Z 01007KT M03/M04 A3037 RMK A01 T10251037  RH  092%=      5-min Rain = 0
KCO2 091324Z 01007KT M03/M04 A3037 RMK A01 T10251037  RH  092%=      5-min Rain = 0
KCO2 091325Z 01008KT M03/M04 A3037 RMK A01 T10261037  RH  092%=      5-min Rain = 0
KCO2 091326Z 01007KT M03/M04 A3037 RMK A01 T10261038  RH  092%=      5-min Rain = 0
KCO2 091327Z 01007KT M03/M04 A3037 RMK A01 T10261037  RH  092%=      5-min Rain = 0
KCO2 091328Z 01007KT M03/M04 A3037 RMK A01 T10261037  RH  092%=      5-min Rain = 0
KCO2 091329Z 01007KT M03/M04 A3037 RMK A01 T10261038  RH  092%=      5-min Rain = 0
KCO2 091330Z 01007KT M03/M04 A3037 RMK A01 T10261038  RH  092%=      5-min Rain = 0
KCO2 091331Z 01007KT M03/M04 A3037 RMK A01 T10261038  RH  092%=      5-min Rain = 0
KCO2 091332Z 01007KT M03/M04 A3037 RMK A01 T10261038  RH  092%=      5-min Rain = 0
KCO2 091333Z 01007KT M03/M04 A3037 RMK A01 T10271038  RH  092%=      5-min Rain = 0
KCO2 091334Z 01007KT M03/M04 A3037 RMK A01 T10271039  RH  092%=      5-min Rain = 0
KCO2 091335Z 01007KT M03/M04 A3037 RMK A01 T10271039  RH  092%=      5-min Rain = 0
KCO2 091336Z 01007KT M03/M04 A3037 RMK A01 T10271039  RH  092%=      5-min Rain = 0
KCO2 091337Z 01007KT M03/M04 A3037 RMK A01 T10281040  RH  092%=      5-min Rain = 0
KCO2 091338Z 01007KT M03/M04 A3037 RMK A01 T10281040  RH  092%=      5-min Rain = 0
KCO2 091339Z 01007KT M03/M04 A3037 RMK A01 T10281040  RH  092%=      5-min Rain = 0
KCO2 091340Z 01007KT M03/M04 A3037 RMK A01 T10281040  RH  092%=      5-min Rain = 0
KCO2 091341Z 01007KT M03/M04 A3037 RMK A01 T10281040  RH  092%=      5-min Rain = 0
KCO2 091342Z 00006KT M03/M04 A3037 RMK A01 T10281040  RH  092%=      5-min Rain = 0
KCO2 091343Z 01007KT M03/M04 A3037 RMK A01 T10281040  RH  092%=      5-min Rain = 0
KCO2 091344Z 00007KT M03/M04 A3037 RMK A01 T10281040  RH  091%=      5-min Rain = 0
KCO2 091345Z 00007KT M03/M04 A3037 RMK A01 T10281041  RH  091%=      5-min Rain = 0
KCO2 091346Z 01007KT M03/M04 A3037 RMK A01 T10281040  RH  091%=      5-min Rain = 0
KCO2 091347Z 01007KT M03/M04 A3037 RMK A01 T10281041  RH  091%=      5-min Rain = 0
KCO2 091348Z 01007KT M03/M04 A3037 RMK A01 T10281040  RH  091%=      5-min Rain = 0
KCO2 091349Z 01007KT M03/M04 A3037 RMK A01 T10271040  RH  091%=      5-min Rain = 0
KCO2 091350Z 01007KT M03/M04 A3037 RMK A01 T10271039  RH  091%=      5-min Rain = 0
KCO2 091351Z 01007KT M03/M04 A3037 RMK A01 T10261039  RH  091%=      5-min Rain = 0
KCO2 091352Z 01008KT M03/M04 A3037 RMK A01 T10261039  RH  091%=      5-min Rain = 0
KCO2 091353Z 01008KT M03/M04 A3037 RMK A01 T10261038  RH  091%=      5-min Rain = 0
KCO2 091354Z 01008KT M03/M04 A3037 RMK A01 T10251038  RH  091%=      5-min Rain = 0
KCO2 091355Z 01008KT M03/M04 A3037 RMK A01 T10251038  RH  091%=      5-min Rain = 0
KCO2 091356Z 01008KT M02/M04 A3037 RMK A01 T10241038  RH  091%=      5-min Rain = 0
KCO2 091357Z 01008KT M02/M04 A3037 RMK A01 T10241037  RH  090%=      5-min Rain = 0
KCO2 091358Z 01008KT M02/M04 A3038 RMK A01 T10231037  RH  090%=      5-min Rain = 0
KCO2 091359Z 01008KT M02/M04 A3038 RMK A01 T10231037  RH  090%=      5-min Rain = 0
KCO2 091400Z 01007KT M02/M04 A3038 RMK A01 T10231037  RH  090%=      5-min Rain = 0
KCO2 091401Z 01008KT M02/M04 A3038 RMK A01 T10221037  RH  090%=      5-min Rain = 0
KCO2 091402Z 01007KT M02/M04 A3038 RMK A01 T10221037  RH  090%=      5-min Rain = 0
KCO2 091403Z 01008KT M02/M04 A3038 RMK A01 T10221037  RH  090%=      5-min Rain = 0
KCO2 091404Z 01008KT M02/M04 A3038 RMK A01 T10211036  RH  090%=      5-min Rain = 0
KCO2 091405Z 00007KT M02/M04 A3038 RMK A01 T10211036  RH  090%=      5-min Rain = 0
KCO2 091406Z 01007KT M02/M04 A3038 RMK A01 T10211036  RH  090%=      5-min Rain = 0
KCO2 091407Z 01007KT M02/M04 A3038 RMK A01 T10201035  RH  090%=      5-min Rain = 0
KCO2 091408Z 01007KT M02/M04 A3038 RMK A01 T10201035  RH  090%=      5-min Rain = 0
KCO2 091409Z 01007KT M02/M04 A3038 RMK A01 T10201035  RH  090%=      5-min Rain = 0
KCO2 091410Z 00007KT M02/M03 A3038 RMK A01 T10191034  RH  090%=      5-min Rain = 0
KCO2 091411Z 01008KT M02/M03 A3038 RMK A01 T10191034  RH  090%=      5-min Rain = 0
KCO2 091412Z 00007KT M02/M03 A3038 RMK A01 T10181034  RH  089%=      5-min Rain = 0
KCO2 091413Z 01008KT M02/M03 A3038 RMK A01 T10181033  RH  089%=      5-min Rain = 0
KCO2 091414Z 00007KT M02/M03 A3038 RMK A01 T10171033  RH  089%=      5-min Rain = 0
KCO2 091415Z 01008KT M02/M03 A3038 RMK A01 T10171033  RH  089%=      5-min Rain = 0
KCO2 091416Z 00007KT M02/M03 A3038 RMK A01 T10161032  RH  089%=      5-min Rain = 0
KCO2 091417Z 01007KT M02/M03 A3038 RMK A01 T10161033  RH  088%=      5-min Rain = 0
KCO2 091418Z 01007KT M02/M03 A3038 RMK A01 T10161032  RH  088%=      5-min Rain = 0
KCO2 091419Z 01006KT M02/M03 A3038 RMK A01 T10151032  RH  088%=      5-min Rain = 0
KCO2 091420Z 01006KT M02/M03 A3038 RMK A01 T10151031  RH  088%=      5-min Rain = 0
KCO2 091421Z 01006KT M01/M03 A3038 RMK A01 T10141031  RH  089%=      5-min Rain = 0
KCO2 091422Z 01006KT M01/M03 A3038 RMK A01 T10141031  RH  088%=      5-min Rain = 0
KCO2 091423Z 01007KT M01/M03 A3038 RMK A01 T10141031  RH  088%=      5-min Rain = 0
KCO2 091424Z 01006KT M01/M03 A3038 RMK A01 T10131030  RH  088%=      5-min Rain = 0
KCO2 091425Z 01006KT M01/M03 A3038 RMK A01 T10131030  RH  088%=      5-min Rain = 0
KCO2 091426Z 01006KT M01/M03 A3038 RMK A01 T10131030  RH  088%=      5-min Rain = 0
KCO2 091427Z 01005KT M01/M03 A3038 RMK A01 T10121029  RH  088%=      5-min Rain = 0
KCO2 091428Z 01005KT M01/M03 A3038 RMK A01 T10111029  RH  088%=      5-min Rain = 0
KCO2 091429Z 01005KT M01/M03 A3038 RMK A01 T10111028  RH  088%=      5-min Rain = 0
KCO2 091430Z 01005KT M01/M03 A3038 RMK A01 T10111028  RH  088%=      5-min Rain = 0
KCO2 091431Z 01005KT M01/M03 A3039 RMK A01 T10101029  RH  087%=      5-min Rain = 0
KCO2 091432Z 02004KT M01/M03 A3039 RMK A01 T10101029  RH  087%=      5-min Rain = 0
KCO2 091433Z 02005KT M01/M03 A3039 RMK A01 T10091028  RH  087%=      5-min Rain = 0
KCO2 091434Z 01005KT M01/M03 A3039 RMK A01 T10091029  RH  086%=      5-min Rain = 0
KCO2 091435Z 02005KT M01/M03 A3039 RMK A01 T10091030  RH  086%=      5-min Rain = 0
KCO2 091436Z 02005KT M01/M03 A3039 RMK A01 T10081029  RH  086%=      5-min Rain = 0
KCO2 091437Z 02005KT M01/M03 A3039 RMK A01 T10081028  RH  086%=      5-min Rain = 0
KCO2 091438Z 02005KT M01/M03 A3039 RMK A01 T10081028  RH  086%=      5-min Rain = 0
KCO2 091439Z 01005KT M01/M03 A3039 RMK A01 T10081029  RH  086%=      5-min Rain = 0
KCO2 091440Z 01005KT M01/M03 A3039 RMK A01 T10071028  RH  086%=      5-min Rain = 0
KCO2 091441Z 01005KT M01/M03 A3039 RMK A01 T10071028  RH  086%=      5-min Rain = 0
KCO2 091442Z 02005KT M01/M03 A3039 RMK A01 T10071028  RH  086%=      5-min Rain = 0
KCO2 091443Z 01005KT M01/M03 A3039 RMK A01 T10061028  RH  085%=      5-min Rain = 0
KCO2 091444Z 01006KT M01/M03 A3039 RMK A01 T10061028  RH  085%=      5-min Rain = 0
KCO2 091445Z 01005KT M01/M03 A3039 RMK A01 T10061028  RH  085%=      5-min Rain = 0
KCO2 091446Z 01005KT M01/M03 A3039 RMK A01 T10051027  RH  085%=      5-min Rain = 0
KCO2 091447Z 01005KT M01/M03 A3039 RMK A01 T10051027  RH  085%=      5-min Rain = 0
KCO2 091448Z 01005KT M00/M03 A3039 RMK A01 T10041027  RH  085%=      5-min Rain = 0
KCO2 091449Z 01005KT M00/M03 A3039 RMK A01 T10041026  RH  085%=      5-min Rain = 0
KCO2 091450Z 01006KT M00/M03 A3039 RMK A01 T10031027  RH  084%=      5-min Rain = 0
KCO2 091451Z 01006KT M00/M03 A3039 RMK A01 T10031029  RH  083%=      5-min Rain = 0
KCO2 091452Z 01006KT M00/M03 A3039 RMK A01 T10031030  RH  082%=      5-min Rain = 0
KCO2 091453Z 00005KT M00/M03 A304 RMK A01 T10031029  RH  082%=      5-min Rain = 0
KCO2 091454Z 01004KT M00/M03 A304 RMK A01 T10021028  RH  082%=      5-min Rain = 0
KCO2 091455Z 00006KT M00/M03 A304 RMK A01 T10011028  RH  082%=      5-min Rain = 0
KCO2 091456Z 01006KT M00/M03 A304 RMK A01 T10011030  RH  081%=      5-min Rain = 0
KCO2 091457Z 01005KT 00/03 A304 RMK A01 T00-00-29  RH  081%=      5-min Rain = 0
KCO2 091458Z 01006KT 00/03 A304 RMK A01 T00-00-30  RH  080%=      5-min Rain = 0
KCO2 091459Z 01006KT 00/03 A304 RMK A01 T00-00-32  RH  079%=      5-min Rain = 0
KCO2 091500Z 01006KT 00/03 A304 RMK A01 T00000-33  RH  078%=      5-min Rain = 0
KCO2 091501Z 01005KT 00/04 A304 RMK A01 T00000-35  RH  077%=      5-min Rain = 0
KCO2 091502Z 01006KT 00/M03 A304 RMK A01 T00011032  RH  078%=      5-min Rain = 0
KCO2 091503Z 01005KT 00/M03 A304 RMK A01 T00021032  RH  078%=      5-min Rain = 0
KCO2 091504Z 01005KT 00/M03 A304 RMK A01 T00021030  RH  079%=      5-min Rain = 0
KCO2 091505Z 00005KT 00/M03 A304 RMK A01 T00031028  RH  080%=      5-min Rain = 0
KCO2 091506Z 01006KT 00/M03 A304 RMK A01 T00031029  RH  079%=      5-min Rain = 0
KCO2 091507Z 00005KT 00/M03 A304 RMK A01 T00041031  RH  077%=      5-min Rain = 0
KCO2 091508Z 01005KT 00/M03 A304 RMK A01 T00041028  RH  079%=      5-min Rain = 0
KCO2 091509Z 01007KT 01/M03 A3041 RMK A01 T00051027  RH  079%=      5-min Rain = 0
KCO2 091510Z 01006KT 01/M03 A3041 RMK A01 T00051031  RH  077%=      5-min Rain = 0
KCO2 091511Z 01005KT 01/M03 A3041 RMK A01 T00051030  RH  077%=      5-min Rain = 0
KCO2 091512Z 01006KT 01/M03 A3041 RMK A01 T00051030  RH  078%=      5-min Rain = 0
KCO2 091513Z 01004KT 01/M03 A3041 RMK A01 T00051032  RH  076%=      5-min Rain = 0
KCO2 091514Z 01005KT 01/M03 A3041 RMK A01 T00051030  RH  077%=      5-min Rain = 0
KCO2 091515Z 00004KT 01/M03 A3041 RMK A01 T00061031  RH  077%=      5-min Rain = 0
KCO2 091516Z 00003KT 01/M03 A3041 RMK A01 T00071028  RH  077%=      5-min Rain = 0
KCO2 091517Z 01003KT 01/M03 A3041 RMK A01 T00071029  RH  077%=      5-min Rain = 0
KCO2 091518Z 01004KT 01/M03 A3041 RMK A01 T00071032  RH  075%=      5-min Rain = 0
KCO2 091519Z 00004KT 01/M03 A3041 RMK A01 T00081031  RH  075%=      5-min Rain = 0
KCO2 091520Z 01004KT 01/M03 A3041 RMK A01 T00091031  RH  075%=      5-min Rain = 0
KCO2 091521Z 01003KT 01/M03 A3041 RMK A01 T00091034  RH  073%=      5-min Rain = 0
KCO2 091522Z 00004KT 01/M03 A3041 RMK A01 T00091034  RH  073%=      5-min Rain = 0
KCO2 091523Z 36004KT 01/M03 A3041 RMK A01 T00091034  RH  073%=      5-min Rain = 0
KCO2 091524Z 00003KT 01/M03 A3041 RMK A01 T00101032  RH  073%=      5-min Rain = 0
KCO2 091525Z 00004KT 01/M03 A3041 RMK A01 T00101031  RH  074%=      5-min Rain = 0
KCO2 091526Z 35003KT 01/M03 A3041 RMK A01 T00111030  RH  074%=      5-min Rain = 0
KCO2 091527Z 36005KT 01/M03 A3041 RMK A01 T00111032  RH  073%=      5-min Rain = 0
KCO2 091528Z 36004KT 01/M04 A3041 RMK A01 T00111035  RH  071%=      5-min Rain = 0
KCO2 091529Z 35005KT 01/M03 A3041 RMK A01 T00121034  RH  072%=      5-min Rain = 0
KCO2 091530Z 36004KT 01/M03 A3041 RMK A01 T00131032  RH  072%=      5-min Rain = 0
KCO2 091531Z 00005KT 01/M03 A3041 RMK A01 T00141034  RH  070%=      5-min Rain = 0
KCO2 091532Z 00004KT 01/M04 A3041 RMK A01 T00141037  RH  069%=      5-min Rain = 0
KCO2 091533Z 02003KT 02/M04 A3041 RMK A01 T00151036  RH  069%=      5-min Rain = 0
KCO2 091534Z 01004KT 02/M04 A3041 RMK A01 T00151037  RH  068%=      5-min Rain = 0
KCO2 091535Z 01004KT 02/M04 A3041 RMK A01 T00151036  RH  069%=      5-min Rain = 0
KCO2 091536Z 01005KT 02/M04 A3042 RMK A01 T00161036  RH  068%=      5-min Rain = 0
KCO2 091537Z 00004KT 02/M04 A3042 RMK A01 T00171036  RH  068%=      5-min Rain = 0
KCO2 091538Z 00005KT 02/M04 A3042 RMK A01 T00181038  RH  066%=      5-min Rain = 0
KCO2 091539Z 01006KT 02/M04 A3042 RMK A01 T00181039  RH  066%=      5-min Rain = 0
KCO2 091540Z 01005KT 02/M04 A3042 RMK A01 T00181042  RH  064%=      5-min Rain = 0
KCO2 091541Z 01005KT 02/M04 A3042 RMK A01 T00191042  RH  064%=      5-min Rain = 0
KCO2 091542Z 01005KT 02/M04 A3042 RMK A01 T00201040  RH  065%=      5-min Rain = 0
KCO2 091543Z 01004KT 02/M04 A3042 RMK A01 T00221039  RH  064%=      5-min Rain = 0
KCO2 091544Z 01005KT 02/M05 A3042 RMK A01 T00221045  RH  061%=      5-min Rain = 0
KCO2 091545Z 01005KT 02/M05 A3042 RMK A01 T00211048  RH  060%=      5-min Rain = 0
KCO2 091546Z 01005KT 02/M05 A3042 RMK A01 T00211046  RH  061%=      5-min Rain = 0
KCO2 091547Z 01004KT 02/M05 A3042 RMK A01 T00211045  RH  062%=      5-min Rain = 0
KCO2 091548Z 02005KT 02/M04 A3042 RMK A01 T00221044  RH  062%=      5-min Rain = 0
KCO2 091549Z 02005KT 02/M04 A3042 RMK A01 T00231044  RH  061%=      5-min Rain = 0
KCO2 091550Z 02004KT 02/M04 A3042 RMK A01 T00231043  RH  062%=      5-min Rain = 0
KCO2 091551Z 01005KT 02/M04 A3042 RMK A01 T00241040  RH  063%=      5-min Rain = 0
KCO2 091552Z 01005KT 03/M04 A3042 RMK A01 T00251043  RH  061%=      5-min Rain = 0
KCO2 091553Z 01006KT 03/M04 A3042 RMK A01 T00261043  RH  060%=      5-min Rain = 0
KCO2 091554Z 02006KT 03/M05 A3042 RMK A01 T00271045  RH  059%=      5-min Rain = 0
KCO2 091555Z 02005KT 03/M04 A3042 RMK A01 T00271044  RH  059%=      5-min Rain = 0
KCO2 091556Z 36005KT 03/M04 A3042 RMK A01 T00271044  RH  060%=      5-min Rain = 0
KCO2 091557Z 36005KT 03/M05 A3042 RMK A01 T00281047  RH  058%=      5-min Rain = 0
KCO2 091558Z 36005KT 03/M05 A3042 RMK A01 T00281050  RH  057%=      5-min Rain = 0
KCO2 091559Z 36006KT 03/M05 A3042 RMK A01 T00291049  RH  057%=      5-min Rain = 0
KCO2 091600Z 01006KT 03/M05 A3042 RMK A01 T00291053  RH  055%=      5-min Rain = 0
KCO2 091601Z 01006KT 03/M06 A3042 RMK A01 T00291056  RH  054%=      5-min Rain = 0
KCO2 091602Z 01005KT 03/M06 A3042 RMK A01 T00281055  RH  054%=      5-min Rain = 0
KCO2 091603Z 00006KT 03/M05 A3042 RMK A01 T00281051  RH  056%=      5-min Rain = 0
KCO2 091604Z 01006KT 03/M05 A3042 RMK A01 T00291053  RH  055%=      5-min Rain = 0
KCO2 091605Z 03006KT 03/M05 A3043 RMK A01 T00301053  RH  054%=      5-min Rain = 0
KCO2 091606Z 00005KT 03/M05 A3043 RMK A01 T00301051  RH  055%=      5-min Rain = 0
KCO2 091607Z 36006KT 03/M05 A3043 RMK A01 T00311049  RH  056%=      5-min Rain = 0
KCO2 091608Z 36006KT 03/M05 A3043 RMK A01 T00311052  RH  054%=      5-min Rain = 0
KCO2 091609Z 00006KT 03/M05 A3043 RMK A01 T00321052  RH  054%=      5-min Rain = 0
KCO2 091610Z 00006KT 03/M05 A3043 RMK A01 T00321052  RH  054%=      5-min Rain = 0
KCO2 091611Z 01006KT 03/M05 A3043 RMK A01 T00341051  RH  054%=      5-min Rain = 0
KCO2 091612Z 02004KT 03/M05 A3043 RMK A01 T00341053  RH  053%=      5-min Rain = 0
KCO2 091613Z 01005KT 04/M05 A3043 RMK A01 T00351054  RH  052%=      5-min Rain = 0
KCO2 091614Z 00005KT 04/M06 A3043 RMK A01 T00351055  RH  052%=      5-min Rain = 0
KCO2 091615Z 01005KT 04/M06 A3043 RMK A01 T00351057  RH  051%=      5-min Rain = 0
KCO2 091616Z 36005KT 04/M06 A3043 RMK A01 T00361055  RH  051%=      5-min Rain = 0
KCO2 091617Z 01006KT 04/M06 A3043 RMK A01 T00361056  RH  051%=      5-min Rain = 0
KCO2 091618Z 00006KT 04/M06 A3043 RMK A01 T00371058  RH  050%=      5-min Rain = 0
KCO2 091619Z 36005KT 04/M06 A3043 RMK A01 T00371058  RH  050%=      5-min Rain = 0
KCO2 091620Z 00006KT 04/M06 A3043 RMK A01 T00371059  RH  050%=      5-min Rain = 0
KCO2 091621Z 00005KT 04/M06 A3043 RMK A01 T00371056  RH  051%=      5-min Rain = 0
KCO2 091622Z 00006KT 04/M05 A3043 RMK A01 T00371052  RH  052%=      5-min Rain = 0
KCO2 091623Z 35006KT 04/M06 A3043 RMK A01 T00371055  RH  051%=      5-min Rain = 0
KCO2 091624Z 35006KT 04/M06 A3043 RMK A01 T00371056  RH  051%=      5-min Rain = 0
KCO2 091625Z 35006KT 04/M06 A3043 RMK A01 T00381057  RH  050%=      5-min Rain = 0
KCO2 091626Z 35005KT 04/M06 A3043 RMK A01 T00381057  RH  050%=      5-min Rain = 0
KCO2 091627Z 01006KT 04/M05 A3043 RMK A01 T00401052  RH  051%=      5-min Rain = 0
KCO2 091628Z 01006KT 04/M06 A3043 RMK A01 T00421058  RH  048%=      5-min Rain = 0
KCO2 091629Z 01006KT 04/M06 A3043 RMK A01 T00421061  RH  047%=      5-min Rain = 0
KCO2 091630Z 01006KT 04/M06 A3043 RMK A01 T00421058  RH  048%=      5-min Rain = 0
KCO2 091631Z 00007KT 04/M05 A3043 RMK A01 T00431053  RH  049%=      5-min Rain = 0
KCO2 091632Z 00006KT 04/M06 A3043 RMK A01 T00441058  RH  048%=      5-min Rain = 0
KCO2 091633Z 00007KT 04/M06 A3043 RMK A01 T00431060  RH  047%=      5-min Rain = 0
KCO2 091634Z 36005KT 04/M06 A3043 RMK A01 T00431059  RH  048%=      5-min Rain = 0
KCO2 091635Z 36006KT 04/M06 A3042 RMK A01 T00431057  RH  048%=      5-min Rain = 0
KCO2 091636Z 03007KT 04/M05 A3043 RMK A01 T00441051  RH  050%=      5-min Rain = 0
KCO2 091637Z 03007KT 04/M06 A3043 RMK A01 T00441055  RH  048%=      5-min Rain = 0
KCO2 091638Z 03007KT 05/M05 A3043 RMK A01 T00451053  RH  049%=      5-min Rain = 0
KCO2 091639Z 02006KT 05/M05 A3043 RMK A01 T00461050  RH  049%=      5-min Rain = 0.01
KCO2 091640Z 03007KT 05/M05 A3043 RMK A01 T00481050  RH  049%=      5-min Rain = 0
KCO2 091641Z 03007KT 05/M06 A3043 RMK A01 T00461058  RH  047%=      5-min Rain = 0
KCO2 091642Z 02006KT 05/M06 A3043 RMK A01 T00451056  RH  048%=      5-min Rain = 0
KCO2 091643Z 01005KT 04/M06 A3043 RMK A01 T00441058  RH  048%=      5-min Rain = 0
KCO2 091644Z 00005KT 04/M06 A3043 RMK A01 T00431056  RH  048%=      5-min Rain = 0
KCO2 091645Z 36006KT 04/M05 A3043 RMK A01 T00441053  RH  049%=      5-min Rain = 0
KCO2 091646Z 02006KT 05/M05 A3043 RMK A01 T00461049  RH  050%=      5-min Rain = 0
KCO2 091647Z 00006KT 05/M05 A3043 RMK A01 T00481051  RH  049%=      5-min Rain = 0
KCO2 091648Z 35007KT 05/M06 A3043 RMK A01 T00491057  RH  046%=      5-min Rain = 0
KCO2 091649Z 34008KT 05/M06 A3043 RMK A01 T00481061  RH  045%=      5-min Rain = 0
KCO2 091650Z 34006KT 05/M06 A3043 RMK A01 T00481059  RH  046%=      5-min Rain = 0
KCO2 091651Z 00005KT 05/M06 A3042 RMK A01 T00481055  RH  047%=      5-min Rain = 0
KCO2 091652Z 35005KT 05/M05 A3042 RMK A01 T00491054  RH  047%=      5-min Rain = 0
KCO2 091653Z 36005KT 05/M06 A3042 RMK A01 T00481056  RH  047%=      5-min Rain = 0
KCO2 091654Z 03006KT 05/M05 A3042 RMK A01 T00491053  RH  047%=      5-min Rain = 0
KCO2 091655Z 03005KT 05/M05 A3042 RMK A01 T00501052  RH  048%=      5-min Rain = 0
KCO2 091656Z 00005KT 05/M05 A3042 RMK A01 T00521051  RH  047%=      5-min Rain = 0
KCO2 091657Z 35004KT 05/M05 A3042 RMK A01 T00521053  RH  047%=      5-min Rain = 0
KCO2 091658Z 01004KT 05/M05 A3042 RMK A01 T00521051  RH  047%=      5-min Rain = 0
KCO2 091659Z 02006KT 05/M05 A3042 RMK A01 T00531051  RH  047%=      5-min Rain = 0
KCO2 091700Z 01006KT 05/M05 A3042 RMK A01 T00531053  RH  046%=      5-min Rain = 0
KCO2 091701Z 02005KT 05/M05 A3042 RMK A01 T00531053  RH  046%=      5-min Rain = 0
KCO2 091702Z 02005KT 05/M05 A3042 RMK A01 T00521053  RH  047%=      5-min Rain = 0
KCO2 091703Z 03006KT 05/M05 A3042 RMK A01 T00531054  RH  046%=      5-min Rain = 0
KCO2 091704Z 03008KT 05/M06 A3042 RMK A01 T00531057  RH  045%=      5-min Rain = 0
KCO2 091705Z 03008KT 05/M06 A3042 RMK A01 T00531055  RH  046%=      5-min Rain = 0
KCO2 091706Z 02007KT 05/M06 A3042 RMK A01 T00531057  RH  045%=      5-min Rain = 0
KCO2 091707Z 01007KT 06/M06 A3042 RMK A01 T00551055  RH  045%=      5-min Rain = 0
KCO2 091708Z 01007KT 06/M06 A3042 RMK A01 T00551058  RH  044%=      5-min Rain = 0
KCO2 091709Z 02004KT 05/M06 A3042 RMK A01 T00541062  RH  043%=      5-min Rain = 0
KCO2 091710Z 03005KT 05/M06 A3042 RMK A01 T00531060  RH  044%=      5-min Rain = 0
KCO2 091711Z 03005KT 06/M06 A3042 RMK A01 T00551055  RH  045%=      5-min Rain = 0
KCO2 091712Z 02007KT 06/M05 A3042 RMK A01 T00571054  RH  045%=      5-min Rain = 0
KCO2 091713Z 00006KT 06/M05 A3042 RMK A01 T00571053  RH  045%=      5-min Rain = 0
KCO2 091714Z 00005KT 06/M06 A3042 RMK A01 T00571055  RH  044%=      5-min Rain = 0
KCO2 091715Z 01004KT 06/M06 A3042 RMK A01 T00561062  RH  043%=      5-min Rain = 0
KCO2 091716Z 02006KT 05/M06 A3042 RMK A01 T00541061  RH  043%=      5-min Rain = 0
KCO2 091717Z 34007KT 06/M06 A3042 RMK A01 T00551055  RH  045%=      5-min Rain = 0
KCO2 091718Z 34008KT 06/M06 A3042 RMK A01 T00581063  RH  041%=      5-min Rain = 0
KCO2 091719Z 33007KT 06/M07 A3042 RMK A01 T00571072  RH  039%=      5-min Rain = 0
KCO2 091720Z 35006KT 06/M07 A3042 RMK A01 T00561068  RH  040%=      5-min Rain = 0
KCO2 091721Z 35008KT 06/M07 A3042 RMK A01 T00571065  RH  041%=      5-min Rain = 0
KCO2 091722Z 35007KT 06/M07 A3042 RMK A01 T00581069  RH  039%=      5-min Rain = 0
KCO2 091723Z 33009KT 06/M08 A3042 RMK A01 T00571076  RH  038%=      5-min Rain = 0
KCO2 091724Z 34007KT 06/M08 A3042 RMK A01 T00551080  RH  037%=      5-min Rain = 0
KCO2 091725Z 01004KT 05/M08 A3042 RMK A01 T00541081  RH  037%=      5-min Rain = 0
KCO2 091726Z 01005KT 05/M08 A3042 RMK A01 T00541083  RH  036%=      5-min Rain = 0
KCO2 091727Z 33006KT 06/M08 A3042 RMK A01 T00561076  RH  038%=      5-min Rain = 0
KCO2 091728Z 35007KT 06/M07 A3042 RMK A01 T00581070  RH  039%=      5-min Rain = 0
KCO2 091729Z 00008KT 06/M08 A3042 RMK A01 T00581079  RH  037%=      5-min Rain = 0
KCO2 091730Z 01007KT 06/M08 A3042 RMK A01 T00581079  RH  037%=      5-min Rain = 0
KCO2 091731Z 00007KT 06/M08 A3042 RMK A01 T00581079  RH  037%=      5-min Rain = 0
KCO2 091732Z 36007KT 06/M08 A3042 RMK A01 T00571077  RH  037%=      5-min Rain = 0
KCO2 091733Z 34007KT 06/M08 A3042 RMK A01 T00571081  RH  036%=      5-min Rain = 0
KCO2 091734Z 35009KT 06/M08 A3042 RMK A01 T00581078  RH  037%=      5-min Rain = 0
KCO2 091735Z 34007KT 06/M08 A3042 RMK A01 T00581076  RH  037%=      5-min Rain = 0
KCO2 091736Z 00006KT 06/M07 A3042 RMK A01 T00581071  RH  039%=      5-min Rain = 0
KCO2 091737Z 02007KT 06/M07 A3042 RMK A01 T00591070  RH  039%=      5-min Rain = 0
KCO2 091738Z 03007KT 06/M07 A3042 RMK A01 T00611073  RH  038%=      5-min Rain = 0
KCO2 091739Z 02006KT 06/M08 A3042 RMK A01 T00601079  RH  036%=      5-min Rain = 0
KCO2 091740Z 01005KT 06/M08 A3042 RMK A01 T00591080  RH  036%=      5-min Rain = 0
KCO2 091741Z 03007KT 06/M07 A3042 RMK A01 T00601073  RH  038%=      5-min Rain = 0
KCO2 091742Z 01007KT 06/M07 A3042 RMK A01 T00601073  RH  038%=      5-min Rain = 0
KCO2 091743Z 02006KT 06/M07 A3042 RMK A01 T00601071  RH  038%=      5-min Rain = 0
KCO2 091744Z 01008KT 06/M07 A3042 RMK A01 T00601072  RH  038%=      5-min Rain = 0
KCO2 091745Z 00007KT 06/M07 A3042 RMK A01 T00611072  RH  038%=      5-min Rain = 0
KCO2 091746Z 36005KT 06/M07 A3042 RMK A01 T00621067  RH  039%=      5-min Rain = 0
KCO2 091747Z 03006KT 07/M06 A3041 RMK A01 T00661060  RH  040%=      5-min Rain = 0
KCO2 091748Z 01009KT 07/M07 A3041 RMK A01 T00671066  RH  038%=      5-min Rain = 0
KCO2 091749Z 01006KT 06/M08 A3041 RMK A01 T00641078  RH  036%=      5-min Rain = 0
KCO2 091750Z 02007KT 06/M08 A3041 RMK A01 T00601078  RH  036%=      5-min Rain = 0
KCO2 091751Z 00007KT 06/M07 A3041 RMK A01 T00601072  RH  038%=      5-min Rain = 0
KCO2 091752Z 36006KT 06/M07 A3041 RMK A01 T00641065  RH  039%=      5-min Rain = 0
KCO2 091753Z 02006KT 07/M07 A3041 RMK A01 T00661065  RH  038%=      5-min Rain = 0
KCO2 091754Z 35006KT 07/M07 A3041 RMK A01 T00671066  RH  038%=      5-min Rain = 0
KCO2 091755Z 35007KT 07/M06 A3041 RMK A01 T00671064  RH  039%=      5-min Rain = 0
KCO2 091756Z 35006KT 07/M07 A3041 RMK A01 T00671068  RH  038%=      5-min Rain = 0
KCO2 091757Z 34008KT 07/M07 A3041 RMK A01 T00661068  RH  038%=      5-min Rain = 0
KCO2 091758Z 34007KT 07/M07 A3041 RMK A01 T00651068  RH  038%=      5-min Rain = 0
KCO2 091759Z 35009KT 06/M07 A3041 RMK A01 T00641071  RH  037%=      5-min Rain = 0
KCO2 091800Z 35009KT 06/M07 A3041 RMK A01 T00641071  RH  037%=      5-min Rain = 0
KCO2 091801Z 01006KT 06/M07 A3041 RMK A01 T00631070  RH  038%=      5-min Rain = 0
KCO2 091802Z 01007KT 07/M06 A3041 RMK A01 T00661063  RH  039%=      5-min Rain = 0
KCO2 091803Z 00006KT 07/M07 A3041 RMK A01 T00681069  RH  037%=      5-min Rain = 0
KCO2 091804Z 34007KT 07/M07 A3041 RMK A01 T00671069  RH  037%=      5-min Rain = 0
KCO2 091805Z 35006KT 07/M07 A3041 RMK A01 T00661071  RH  037%=      5-min Rain = 0
KCO2 091806Z 34005KT 07/M07 A304 RMK A01 T00661069  RH  037%=      5-min Rain = 0
KCO2 091807Z 34007KT 07/M07 A304 RMK A01 T00671072  RH  036%=      5-min Rain = 0
KCO2 091808Z 34006KT 07/M08 A304 RMK A01 T00661075  RH  036%=      5-min Rain = 0
KCO2 091809Z 36006KT 07/M08 A304 RMK A01 T00651076  RH  036%=      5-min Rain = 0
KCO2 091810Z 35007KT 06/M08 A304 RMK A01 T00641076  RH  036%=      5-min Rain = 0
KCO2 091811Z 35007KT 06/M07 A304 RMK A01 T00641074  RH  037%=      5-min Rain = 0
KCO2 091812Z 02007KT 07/M07 A304 RMK A01 T00651072  RH  037%=      5-min Rain = 0
KCO2 091813Z 01006KT 07/M08 A304 RMK A01 T00661078  RH  035%=      5-min Rain = 0
KCO2 091814Z 02007KT 07/M08 A304 RMK A01 T00651078  RH  035%=      5-min Rain = 0
KCO2 091815Z 01009KT 07/M07 A304 RMK A01 T00671071  RH  037%=      5-min Rain = 0
KCO2 091816Z 01007KT 07/M08 A304 RMK A01 T00671076  RH  035%=      5-min Rain = 0
KCO2 091817Z 00005KT 07/M08 A304 RMK A01 T00651080  RH  035%=      5-min Rain = 0
KCO2 091818Z 02006KT 06/M08 A304 RMK A01 T00641078  RH  036%=      5-min Rain = 0
KCO2 091819Z 02008KT 07/M08 A304 RMK A01 T00651077  RH  035%=      5-min Rain = 0
KCO2 091820Z 01008KT 07/M08 A304 RMK A01 T00661078  RH  035%=      5-min Rain = 0
KCO2 091821Z 03007KT 07/M07 A304 RMK A01 T00671074  RH  036%=      5-min Rain = 0
KCO2 091822Z 04007KT 07/M08 A304 RMK A01 T00671076  RH  035%=      5-min Rain = 0
KCO2 091823Z 01006KT 07/M08 A304 RMK A01 T00671076  RH  035%=      5-min Rain = 0
KCO2 091824Z 01007KT 07/M08 A304 RMK A01 T00661079  RH  035%=      5-min Rain = 0
KCO2 091825Z 02007KT 07/M08 A304 RMK A01 T00651084  RH  034%=      5-min Rain = 0
KCO2 091826Z 02005KT 07/M08 A3039 RMK A01 T00651081  RH  034%=      5-min Rain = 0
KCO2 091827Z 01005KT 07/M08 A3039 RMK A01 T00671077  RH  035%=      5-min Rain = 0
KCO2 091828Z 01004KT 07/M08 A3039 RMK A01 T00701081  RH  033%=      5-min Rain = 0
KCO2 091829Z 36005KT 07/M09 A3039 RMK A01 T00691087  RH  032%=      5-min Rain = 0
KCO2 091830Z 36007KT 07/M08 A3039 RMK A01 T00691080  RH  034%=      5-min Rain = 0
KCO2 091831Z 02008KT 07/M08 A3039 RMK A01 T00691076  RH  035%=      5-min Rain = 0
KCO2 091832Z 01007KT 07/M08 A3039 RMK A01 T00711075  RH  035%=      5-min Rain = 0
KCO2 091833Z 03008KT 07/M08 A3039 RMK A01 T00701081  RH  033%=      5-min Rain = 0
KCO2 091834Z 03007KT 07/M08 A3039 RMK A01 T00681079  RH  034%=      5-min Rain = 0
KCO2 091835Z 02006KT 07/M09 A3039 RMK A01 T00661086  RH  033%=      5-min Rain = 0
KCO2 091836Z 01002KT 06/M09 A3038 RMK A01 T00641087  RH  033%=      5-min Rain = 0
KCO2 091837Z 04003KT 07/M08 A3038 RMK A01 T00651078  RH  035%=      5-min Rain = 0
KCO2 091838Z 01008KT 07/M08 A3038 RMK A01 T00671078  RH  035%=      5-min Rain = 0
KCO2 091839Z 00007KT 07/M08 A3038 RMK A01 T00681079  RH  034%=      5-min Rain = 0
KCO2 091840Z 01006KT 07/M08 A3038 RMK A01 T00661080  RH  034%=      5-min Rain = 0
KCO2 091841Z 01007KT 07/M08 A3038 RMK A01 T00671077  RH  035%=      5-min Rain = 0
KCO2 091842Z 02007KT 07/M08 A3038 RMK A01 T00671083  RH  033%=      5-min Rain = 0
KCO2 091843Z 03007KT 07/M08 A3038 RMK A01 T00681084  RH  033%=      5-min Rain = 0
KCO2 091844Z 04007KT 07/M09 A3038 RMK A01 T00681088  RH  032%=      5-min Rain = 0
KCO2 091845Z 02007KT 07/M09 A3038 RMK A01 T00681088  RH  032%=      5-min Rain = 0
KCO2 091846Z 36005KT 07/M09 A3038 RMK A01 T00691086  RH  032%=      5-min Rain = 0
KCO2 091847Z 00004KT 07/M09 A3038 RMK A01 T00681094  RH  030%=      5-min Rain = 0
KCO2 091848Z 01006KT 07/M09 A3038 RMK A01 T00671093  RH  031%=      5-min Rain = 0
KCO2 091849Z 36006KT 07/M08 A3038 RMK A01 T00701081  RH  033%=      5-min Rain = 0
KCO2 091850Z 36005KT 07/M08 A3038 RMK A01 T00721082  RH  033%=      5-min Rain = 0
KCO2 091851Z 00003KT 07/M08 A3038 RMK A01 T00721076  RH  034%=      5-min Rain = 0
KCO2 091852Z 33001KT 07/M08 A3038 RMK A01 T00731083  RH  032%=      5-min Rain = 0
KCO2 091853Z 03002KT 07/M09 A3038 RMK A01 T00721090  RH  031%=      5-min Rain = 0
KCO2 091854Z 03006KT 07/M09 A3038 RMK A01 T00711085  RH  032%=      5-min Rain = 0
KCO2 091855Z 02007KT 07/M08 A3038 RMK A01 T00731082  RH  032%=      5-min Rain = 0
KCO2 091856Z 02007KT 07/M09 A3038 RMK A01 T00721089  RH  031%=      5-min Rain = 0
KCO2 091857Z 01004KT 07/M09 A3038 RMK A01 T00701089  RH  031%=      5-min Rain = 0
KCO2 091858Z 02008KT 07/M10 A3038 RMK A01 T00701095  RH  030%=      5-min Rain = 0
KCO2 091859Z 02007KT 07/M10 A3038 RMK A01 T00701097  RH  029%=      5-min Rain = 0
KCO2 091900Z 02008KT 07/M10 A3038 RMK A01 T00711098  RH  029%=      5-min Rain = 0
KCO2 091901Z 03004KT 07/M10 A3038 RMK A01 T00701104  RH  028%=      5-min Rain = 0
KCO2 091902Z 03004KT 07/M10 A3038 RMK A01 T00681100  RH  029%=      5-min Rain = 0
KCO2 091903Z 01004KT 07/M09 A3038 RMK A01 T00701091  RH  031%=      5-min Rain = 0
KCO2 091904Z 01005KT 07/M08 A3038 RMK A01 T00731083  RH  032%=      5-min Rain = 0
KCO2 091905Z 36007KT 08/M09 A3038 RMK A01 T00751085  RH  031%=      5-min Rain = 0
KCO2 091906Z 01005KT 07/M09 A3038 RMK A01 T00721090  RH  030%=      5-min Rain = 0
KCO2 091907Z 01005KT 07/M09 A3038 RMK A01 T00711090  RH  031%=      5-min Rain = 0
KCO2 091908Z 01004KT 07/M09 A3038 RMK A01 T00721086  RH  031%=      5-min Rain = 0
KCO2 091909Z 36006KT 07/M08 A3038 RMK A01 T00721084  RH  032%=      5-min Rain = 0
KCO2 091910Z 00006KT 07/M09 A3038 RMK A01 T00731085  RH  032%=      5-min Rain = 0
KCO2 091911Z 36006KT 07/M09 A3038 RMK A01 T00721085  RH  032%=      5-min Rain = 0
KCO2 091912Z 34005KT 07/M09 A3037 RMK A01 T00701089  RH  031%=      5-min Rain = 0
KCO2 091913Z 36004KT 07/M09 A3037 RMK A01 T00691085  RH  032%=      5-min Rain = 0
KCO2 091914Z 03004KT 07/M08 A3037 RMK A01 T00691084  RH  033%=      5-min Rain = 0
KCO2 091915Z 02006KT 07/M08 A3037 RMK A01 T00711078  RH  034%=      5-min Rain = 0
KCO2 091916Z 02006KT 07/M08 A3037 RMK A01 T00741076  RH  033%=      5-min Rain = 0
KCO2 091917Z 01004KT 08/M08 A3037 RMK A01 T00751081  RH  032%=      5-min Rain = 0
KCO2 091918Z 33005KT 08/M08 A3037 RMK A01 T00751081  RH  032%=      5-min Rain = 0
KCO2 091919Z 32006KT 08/M08 A3037 RMK A01 T00771081  RH  032%=      5-min Rain = 0
KCO2 091920Z 34006KT 08/M09 A3037 RMK A01 T00771087  RH  030%=      5-min Rain = 0
KCO2 091921Z 00007KT 08/M09 A3037 RMK A01 T00771086  RH  031%=      5-min Rain = 0
KCO2 091922Z 35006KT 08/M09 A3037 RMK A01 T00781086  RH  030%=      5-min Rain = 0
KCO2 091923Z 01004KT 08/M09 A3037 RMK A01 T00781089  RH  029%=      5-min Rain = 0
KCO2 091924Z 01005KT 08/M08 A3037 RMK A01 T00791084  RH  031%=      5-min Rain = 0
KCO2 091925Z 00008KT 08/M09 A3037 RMK A01 T00791092  RH  029%=      5-min Rain = 0
KCO2 091926Z 00007KT 08/M10 A3037 RMK A01 T00771100  RH  027%=      5-min Rain = 0
KCO2 091927Z 01006KT 08/M10 A3037 RMK A01 T00751098  RH  028%=      5-min Rain = 0
KCO2 091928Z 01008KT 08/M09 A3037 RMK A01 T00751090  RH  030%=      5-min Rain = 0
KCO2 091929Z 01005KT 08/M09 A3037 RMK A01 T00761091  RH  030%=      5-min Rain = 0
KCO2 091930Z 02003KT 08/M09 A3037 RMK A01 T00751092  RH  030%=      5-min Rain = 0
KCO2 091931Z 04004KT 07/M09 A3037 RMK A01 T00741093  RH  029%=      5-min Rain = 0
KCO2 091932Z 03007KT 07/M09 A3037 RMK A01 T00741088  RH  031%=      5-min Rain = 0
KCO2 091933Z 05008KT 08/M08 A3037 RMK A01 T00751083  RH  031%=      5-min Rain = 0
KCO2 091934Z 02006KT 08/M08 A3037 RMK A01 T00761084  RH  031%=      5-min Rain = 0
KCO2 091935Z 01003KT 08/M09 A3037 RMK A01 T00761087  RH  030%=      5-min Rain = 0
KCO2 091936Z 02004KT 08/M08 A3037 RMK A01 T00761084  RH  031%=      5-min Rain = 0
KCO2 091937Z 34004KT 08/M08 A3037 RMK A01 T00771080  RH  032%=      5-min Rain = 0
KCO2 091938Z 35006KT 08/M08 A3037 RMK A01 T00781079  RH  032%=      5-min Rain = 0
KCO2 091939Z 33007KT 08/M08 A3037 RMK A01 T00801080  RH  031%=      5-min Rain = 0
KCO2 091940Z 34007KT 08/M08 A3037 RMK A01 T00781084  RH  031%=      5-min Rain = 0
KCO2 091941Z 32008KT 08/M09 A3037 RMK A01 T00771085  RH  031%=      5-min Rain = 0
KCO2 091942Z 34005KT 08/M08 A3037 RMK A01 T00771077  RH  032%=      5-min Rain = 0
KCO2 091943Z 34005KT 08/M07 A3037 RMK A01 T00811072  RH  033%=      5-min Rain = 0
KCO2 091944Z 32005KT 08/M08 A3037 RMK A01 T00821077  RH  031%=      5-min Rain = 0
KCO2 091945Z 31007KT 08/M08 A3037 RMK A01 T00801084  RH  030%=      5-min Rain = 0
KCO2 091946Z 31005KT 08/M09 A3036 RMK A01 T00771087  RH  030%=      5-min Rain = 0
KCO2 091947Z 30004KT 08/M09 A3036 RMK A01 T00751088  RH  030%=      5-min Rain = 0
KCO2 091948Z 29001KT 07/M09 A3036 RMK A01 T00731093  RH  030%=      5-min Rain = 0
KCO2 091949Z 29001KT 07/M09 A3036 RMK A01 T00731089  RH  031%=      5-min Rain = 0
KCO2 091950Z 27003KT 08/M08 A3036 RMK A01 T00751084  RH  032%=      5-min Rain = 0
KCO2 091951Z 32005KT 08/M09 A3036 RMK A01 T00771087  RH  030%=      5-min Rain = 0
KCO2 091952Z 31008KT 08/M09 A3036 RMK A01 T00771091  RH  029%=      5-min Rain = 0
KCO2 091953Z 31007KT 08/M09 A3036 RMK A01 T00781092  RH  029%=      5-min Rain = 0
KCO2 091954Z 30006KT 08/M09 A3036 RMK A01 T00801089  RH  029%=      5-min Rain = 0
KCO2 091955Z 32007KT 08/M09 A3036 RMK A01 T00801088  RH  029%=      5-min Rain = 0
KCO2 091956Z 34006KT 08/M09 A3037 RMK A01 T00801085  RH  030%=      5-min Rain = 0
KCO2 091957Z 36004KT 08/M08 A3037 RMK A01 T00791084  RH  030%=      5-min Rain = 0
KCO2 091958Z 30004KT 08/M08 A3036 RMK A01 T00781084  RH  031%=      5-min Rain = 0
KCO2 091959Z 28004KT 08/M08 A3036 RMK A01 T00781084  RH  031%=      5-min Rain = 0
KCO2 092000Z 31003KT 08/M09 A3036 RMK A01 T00761091  RH  030%=      5-min Rain = 0
KCO2 092001Z 32002KT 08/M09 A3036 RMK A01 T00761085  RH  031%=      5-min Rain = 0
KCO2 092002Z 33004KT 08/M08 A3036 RMK A01 T00771084  RH  031%=      5-min Rain = 0
KCO2 092003Z 34006KT 08/M08 A3036 RMK A01 T00781082  RH  031%=      5-min Rain = 0
KCO2 092004Z 36005KT 08/M08 A3036 RMK A01 T00791082  RH  031%=      5-min Rain = 0
KCO2 092005Z 35002KT 08/M08 A3036 RMK A01 T00801084  RH  030%=      5-min Rain = 0
KCO2 092006Z 33005KT 08/M08 A3036 RMK A01 T00791083  RH  031%=      5-min Rain = 0
KCO2 092007Z 33005KT 08/M09 A3036 RMK A01 T00791090  RH  029%=      5-min Rain = 0
KCO2 092008Z 31005KT 08/M09 A3036 RMK A01 T00791090  RH  029%=      5-min Rain = 0
KCO2 092009Z 31004KT 08/M09 A3036 RMK A01 T00791086  RH  030%=      5-min Rain = 0
KCO2 092010Z 32006KT 08/M08 A3036 RMK A01 T00791084  RH  030%=      5-min Rain = 0
KCO2 092011Z 33006KT 08/M08 A3036 RMK A01 T00801082  RH  031%=      5-min Rain = 0
KCO2 092012Z 31006KT 08/M08 A3036 RMK A01 T00801078  RH  032%=      5-min Rain = 0
KCO2 092013Z 31005KT 08/M08 A3036 RMK A01 T00811078  RH  032%=      5-min Rain = 0
KCO2 092014Z 32003KT 08/M08 A3036 RMK A01 T00801082  RH  031%=      5-min Rain = 0
KCO2 092015Z 30004KT 08/M08 A3036 RMK A01 T00791083  RH  031%=      5-min Rain = 0
KCO2 092016Z 32003KT 08/M08 A3036 RMK A01 T00791075  RH  033%=      5-min Rain = 0
KCO2 092017Z 32005KT 08/M07 A3036 RMK A01 T00821071  RH  033%=      5-min Rain = 0
KCO2 092018Z 36006KT 08/M08 A3036 RMK A01 T00831075  RH  032%=      5-min Rain = 0
KCO2 092019Z 34006KT 08/M08 A3036 RMK A01 T00841075  RH  031%=      5-min Rain = 0
KCO2 092020Z 32004KT 08/M08 A3036 RMK A01 T00841078  RH  031%=      5-min Rain = 0
KCO2 092021Z 30002KT 08/M08 A3036 RMK A01 T00821078  RH  031%=      5-min Rain = 0
KCO2 092022Z 34003KT 08/M08 A3036 RMK A01 T00811078  RH  032%=      5-min Rain = 0
KCO2 092023Z 01006KT 08/M08 A3036 RMK A01 T00811078  RH  031%=      5-min Rain = 0
KCO2 092024Z 36006KT 08/M08 A3036 RMK A01 T00821075  RH  032%=      5-min Rain = 0
KCO2 092025Z 33008KT 08/M08 A3036 RMK A01 T00821075  RH  032%=      5-min Rain = 0
KCO2 092026Z 35003KT 08/M08 A3036 RMK A01 T00791078  RH  032%=      5-min Rain = 0
KCO2 092027Z 34001KT 08/M08 A3036 RMK A01 T00771080  RH  032%=      5-min Rain = 0
KCO2 092028Z 01004KT 08/M08 A3036 RMK A01 T00771077  RH  033%=      5-min Rain = 0
KCO2 092029Z 34005KT 08/M08 A3036 RMK A01 T00781076  RH  033%=      5-min Rain = 0
KCO2 092030Z 33005KT 08/M07 A3036 RMK A01 T00801072  RH  033%=      5-min Rain = 0
KCO2 092031Z 34006KT 08/M08 A3036 RMK A01 T00791079  RH  032%=      5-min Rain = 0
KCO2 092032Z 33006KT 08/M08 A3036 RMK A01 T00801075  RH  033%=      5-min Rain = 0
KCO2 092033Z 32006KT 08/M08 A3036 RMK A01 T00811077  RH  032%=      5-min Rain = 0
KCO2 092034Z 33004KT 08/M08 A3036 RMK A01 T00811083  RH  031%=      5-min Rain = 0
KCO2 092035Z 36006KT 08/M09 A3036 RMK A01 T00791087  RH  030%=      5-min Rain = 0
KCO2 092036Z 34006KT 08/M09 A3036 RMK A01 T00791085  RH  030%=      5-min Rain = 0
KCO2 092037Z 34004KT 08/M09 A3036 RMK A01 T00791089  RH  029%=      5-min Rain = 0
KCO2 092038Z 35007KT 08/M08 A3036 RMK A01 T00801081  RH  031%=      5-min Rain = 0
KCO2 092039Z 36006KT 08/M07 A3036 RMK A01 T00821074  RH  032%=      5-min Rain = 0
KCO2 092040Z 01004KT 08/M08 A3036 RMK A01 T00831078  RH  031%=      5-min Rain = 0
KCO2 092041Z 35005KT 08/M08 A3035 RMK A01 T00821076  RH  032%=      5-min Rain = 0
KCO2 092042Z 34006KT 08/M07 A3035 RMK A01 T00841073  RH  032%=      5-min Rain = 0
KCO2 092043Z 35005KT 08/M08 A3035 RMK A01 T00841075  RH  032%=      5-min Rain = 0
KCO2 092044Z 31002KT 08/M08 A3035 RMK A01 T00811083  RH  030%=      5-min Rain = 0
KCO2 092045Z 32001KT 08/M08 A3035 RMK A01 T00801081  RH  031%=      5-min Rain = 0
KCO2 092046Z 35001KT 08/M08 A3035 RMK A01 T00801080  RH  031%=      5-min Rain = 0
KCO2 092047Z 02003KT 08/M08 A3035 RMK A01 T00811079  RH  031%=      5-min Rain = 0
KCO2 092048Z 02006KT 08/M08 A3035 RMK A01 T00811075  RH  032%=      5-min Rain = 0
KCO2 092049Z 01004KT 08/M07 A3035 RMK A01 T00821071  RH  033%=      5-min Rain = 0
KCO2 092050Z 04001KT 08/M07 A3035 RMK A01 T00821070  RH  033%=      5-min Rain = 0
KCO2 092051Z 01004KT 08/M07 A3035 RMK A01 T00841065  RH  034%=      5-min Rain = 0
KCO2 092052Z 35003KT 09/M07 A3035 RMK A01 T00861067  RH  033%=      5-min Rain = 0
KCO2 092053Z 31007KT 09/M07 A3035 RMK A01 T00861066  RH  033%=      5-min Rain = 0
KCO2 092054Z 32007KT 09/M07 A3035 RMK A01 T00861071  RH  032%=      5-min Rain = 0
KCO2 092055Z 32006KT 08/M08 A3035 RMK A01 T00841075  RH  032%=      5-min Rain = 0
KCO2 092056Z 30006KT 08/M08 A3035 RMK A01 T00841076  RH  031%=      5-min Rain = 0
KCO2 092057Z 33006KT 08/M08 A3035 RMK A01 T00841077  RH  031%=      5-min Rain = 0
KCO2 092058Z 34008KT 08/M08 A3035 RMK A01 T00831076  RH  032%=      5-min Rain = 0
KCO2 092059Z 33006KT 08/M08 A3035 RMK A01 T00841078  RH  031%=      5-min Rain = 0
KCO2 092100Z 32005KT 08/M08 A3035 RMK A01 T00841079  RH  031%=      5-min Rain = 0
KCO2 092101Z 34005KT 08/M08 A3034 RMK A01 T00821078  RH  031%=      5-min Rain = 0
KCO2 092102Z 33005KT 08/M07 A3034 RMK A01 T00821074  RH  032%=      5-min Rain = 0
KCO2 092103Z 35004KT 08/M07 A3034 RMK A01 T00821073  RH  033%=      5-min Rain = 0
KCO2 092104Z 00003KT 08/M07 A3034 RMK A01 T00821074  RH  032%=      5-min Rain = 0
KCO2 092105Z 01002KT 08/M07 A3034 RMK A01 T00811074  RH  033%=      5-min Rain = 0
KCO2 092106Z 03002KT 08/M07 A3034 RMK A01 T00821071  RH  033%=      5-min Rain = 0
KCO2 092107Z 03001KT 08/M07 A3034 RMK A01 T00821072  RH  033%=      5-min Rain = 0
KCO2 092108Z 33004KT 08/M07 A3034 RMK A01 T00831068  RH  034%=      5-min Rain = 0
KCO2 092109Z 31006KT 08/M07 A3034 RMK A01 T00831068  RH  034%=      5-min Rain = 0
KCO2 092110Z 31005KT 08/M07 A3034 RMK A01 T00821070  RH  034%=      5-min Rain = 0
KCO2 092111Z 32004KT 08/M07 A3034 RMK A01 T00811069  RH  034%=      5-min Rain = 0
KCO2 092112Z 33006KT 08/M06 A3034 RMK A01 T00821064  RH  035%=      5-min Rain = 0
KCO2 092113Z 32005KT 08/M07 A3034 RMK A01 T00841066  RH  034%=      5-min Rain = 0
KCO2 092114Z 32004KT 08/M07 A3034 RMK A01 T00841068  RH  033%=      5-min Rain = 0
KCO2 092115Z 33004KT 08/M07 A3034 RMK A01 T00831068  RH  034%=      5-min Rain = 0
KCO2 092116Z 02001KT 08/M07 A3034 RMK A01 T00831069  RH  033%=      5-min Rain = 0
KCO2 092117Z 31003KT 08/M07 A3034 RMK A01 T00841069  RH  033%=      5-min Rain = 0
KCO2 092118Z 32005KT 08/M07 A3034 RMK A01 T00841070  RH  033%=      5-min Rain = 0
KCO2 092119Z 35005KT 09/M07 A3034 RMK A01 T00861065  RH  034%=      5-min Rain = 0
KCO2 092120Z 34005KT 09/M07 A3034 RMK A01 T00871070  RH  032%=      5-min Rain = 0
KCO2 092121Z 35006KT 09/M07 A3034 RMK A01 T00871070  RH  032%=      5-min Rain = 0
KCO2 092122Z 36006KT 09/M07 A3034 RMK A01 T00861069  RH  033%=      5-min Rain = 0
KCO2 092123Z 34007KT 09/M06 A3034 RMK A01 T00871064  RH  034%=      5-min Rain = 0
KCO2 092124Z 34009KT 09/M07 A3034 RMK A01 T00881066  RH  033%=      5-min Rain = 0
KCO2 092125Z 35006KT 09/M07 A3034 RMK A01 T00861071  RH  032%=      5-min Rain = 0
KCO2 092126Z 36005KT 08/M07 A3034 RMK A01 T00841071  RH  033%=      5-min Rain = 0
KCO2 092127Z 32005KT 08/M07 A3034 RMK A01 T00841070  RH  033%=      5-min Rain = 0
KCO2 092128Z 34006KT 09/M07 A3034 RMK A01 T00851072  RH  032%=      5-min Rain = 0
KCO2 092129Z 32005KT 08/M07 A3034 RMK A01 T00841072  RH  032%=      5-min Rain = 0
KCO2 092130Z 30004KT 09/M07 A3034 RMK A01 T00851069  RH  033%=      5-min Rain = 0
KCO2 092131Z 32005KT 09/M07 A3034 RMK A01 T00861068  RH  033%=      5-min Rain = 0
KCO2 092132Z 33006KT 09/M06 A3034 RMK A01 T00871063  RH  034%=      5-min Rain = 0
KCO2 092133Z 35006KT 09/M06 A3034 RMK A01 T00901058  RH  035%=      5-min Rain = 0
KCO2 092134Z 00006KT 09/M06 A3034 RMK A01 T00931056  RH  035%=      5-min Rain = 0
KCO2 092135Z 00005KT 09/M06 A3034 RMK A01 T00911063  RH  033%=      5-min Rain = 0
KCO2 092136Z 35002KT 09/M06 A3034 RMK A01 T00891064  RH  033%=      5-min Rain = 0
KCO2 092137Z 35002KT 09/M07 A3034 RMK A01 T00881066  RH  033%=      5-min Rain = 0
KCO2 092138Z 34003KT 09/M07 A3034 RMK A01 T00871065  RH  034%=      5-min Rain = 0
KCO2 092139Z 33007KT 09/M06 A3034 RMK A01 T00871064  RH  034%=      5-min Rain = 0
KCO2 092140Z 33005KT 09/M06 A3034 RMK A01 T00871064  RH  034%=      5-min Rain = 0
KCO2 092141Z 32003KT 09/M07 A3034 RMK A01 T00861066  RH  033%=      5-min Rain = 0
KCO2 092142Z 31003KT 09/M07 A3034 RMK A01 T00851066  RH  034%=      5-min Rain = 0
KCO2 092143Z 30004KT 09/M06 A3035 RMK A01 T00861064  RH  034%=      5-min Rain = 0
KCO2 092144Z 30005KT 09/M07 A3035 RMK A01 T00871066  RH  033%=      5-min Rain = 0
KCO2 092145Z 29006KT 09/M07 A3035 RMK A01 T00871069  RH  032%=      5-min Rain = 0
KCO2 092146Z 29006KT 09/M07 A3035 RMK A01 T00871068  RH  033%=      5-min Rain = 0
KCO2 092147Z 32005KT 09/M07 A3035 RMK A01 T00891065  RH  033%=      5-min Rain = 0
KCO2 092148Z 33007KT 09/M07 A3035 RMK A01 T00901065  RH  033%=      5-min Rain = 0
KCO2 092149Z 33004KT 09/M07 A3035 RMK A01 T00881070  RH  032%=      5-min Rain = 0
KCO2 092150Z 32006KT 09/M07 A3035 RMK A01 T00861070  RH  032%=      5-min Rain = 0
KCO2 092151Z 32007KT 09/M07 A3035 RMK A01 T00861068  RH  033%=      5-min Rain = 0
KCO2 092152Z 31004KT 09/M07 A3035 RMK A01 T00861069  RH  033%=      5-min Rain = 0
KCO2 092153Z 33007KT 09/M07 A3035 RMK A01 T00871067  RH  033%=      5-min Rain = 0
KCO2 092154Z 33007KT 09/M07 A3035 RMK A01 T00861072  RH  032%=      5-min Rain = 0
KCO2 092155Z 33006KT 09/M07 A3035 RMK A01 T00851070  RH  033%=      5-min Rain = 0
KCO2 092156Z 31005KT 09/M07 A3035 RMK A01 T00851072  RH  032%=      5-min Rain = 0
KCO2 092157Z 34004KT 09/M07 A3035 RMK A01 T00851069  RH  033%=      5-min Rain = 0
KCO2 092158Z 34003KT 09/M07 A3035 RMK A01 T00861071  RH  032%=      5-min Rain = 0
KCO2 092159Z 32004KT 09/M07 A3035 RMK A01 T00851071  RH  032%=      5-min Rain = 0
KCO2 092200Z 32005KT 09/M07 A3035 RMK A01 T00851071  RH  032%=      5-min Rain = 0
KCO2 092201Z 33006KT 09/M07 A3035 RMK A01 T00851070  RH  033%=      5-min Rain = 0
KCO2 092202Z 34005KT 09/M07 A3035 RMK A01 T00861066  RH  033%=      5-min Rain = 0
KCO2 092203Z 34006KT 09/M06 A3035 RMK A01 T00881063  RH  034%=      5-min Rain = 0
KCO2 092204Z 34005KT 09/M07 A3035 RMK A01 T00881069  RH  032%=      5-min Rain = 0
KCO2 092205Z 35003KT 09/M07 A3035 RMK A01 T00861068  RH  033%=      5-min Rain = 0
KCO2 092206Z 33006KT 09/M07 A3035 RMK A01 T00861067  RH  033%=      5-min Rain = 0
KCO2 092207Z 33005KT 09/M07 A3035 RMK A01 T00851072  RH  032%=      5-min Rain = 0
KCO2 092208Z 34004KT 08/M07 A3035 RMK A01 T00841072  RH  032%=      5-min Rain = 0
KCO2 092209Z 32006KT 08/M07 A3035 RMK A01 T00841069  RH  033%=      5-min Rain = 0
KCO2 092210Z 32005KT 09/M07 A3035 RMK A01 T00851071  RH  032%=      5-min Rain = 0
KCO2 092211Z 33004KT 09/M07 A3035 RMK A01 T00851073  RH  032%=      5-min Rain = 0
KCO2 092212Z 34005KT 08/M07 A3035 RMK A01 T00841071  RH  033%=      5-min Rain = 0
KCO2 092213Z 33004KT 09/M07 A3035 RMK A01 T00861068  RH  033%=      5-min Rain = 0
KCO2 092214Z 32006KT 09/M07 A3035 RMK A01 T00861070  RH  032%=      5-min Rain = 0
KCO2 092215Z 33004KT 09/M07 A3035 RMK A01 T00861069  RH  033%=      5-min Rain = 0
KCO2 092216Z 33004KT 09/M07 A3035 RMK A01 T00861068  RH  033%=      5-min Rain = 0
KCO2 092217Z 31006KT 09/M07 A3035 RMK A01 T00861066  RH  033%=      5-min Rain = 0
KCO2 092218Z 33006KT 09/M06 A3035 RMK A01 T00861064  RH  034%=      5-min Rain = 0
KCO2 092219Z 35006KT 09/M07 A3035 RMK A01 T00861065  RH  034%=      5-min Rain = 0
KCO2 092220Z 01006KT 09/M07 A3035 RMK A01 T00861068  RH  033%=      5-min Rain = 0
KCO2 092221Z 02006KT 09/M07 A3035 RMK A01 T00861070  RH  032%=      5-min Rain = 0
KCO2 092222Z 02005KT 09/M07 A3035 RMK A01 T00851071  RH  032%=      5-min Rain = 0
KCO2 092223Z 01005KT 08/M07 A3035 RMK A01 T00841068  RH  033%=      5-min Rain = 0
KCO2 092224Z 01005KT 08/M07 A3035 RMK A01 T00841068  RH  033%=      5-min Rain = 0
KCO2 092225Z 01005KT 08/M07 A3035 RMK A01 T00841068  RH  033%=      5-min Rain = 0
KCO2 092226Z 01003KT 08/M07 A3035 RMK A01 T00841069  RH  033%=      5-min Rain = 0
KCO2 092227Z 01005KT 08/M07 A3035 RMK A01 T00841068  RH  033%=      5-min Rain = 0
KCO2 092228Z 34007KT 08/M06 A3035 RMK A01 T00841064  RH  034%=      5-min Rain = 0
KCO2 092229Z 35006KT 09/M06 A3035 RMK A01 T00851063  RH  034%=      5-min Rain = 0
KCO2 092230Z 34007KT 08/M06 A3035 RMK A01 T00841062  RH  035%=      5-min Rain = 0
KCO2 092231Z 34005KT 09/M06 A3035 RMK A01 T00851062  RH  035%=      5-min Rain = 0
KCO2 092232Z 34004KT 08/M06 A3035 RMK A01 T00841062  RH  035%=      5-min Rain = 0
KCO2 092233Z 34006KT 08/M06 A3035 RMK A01 T00841063  RH  035%=      5-min Rain = 0
KCO2 092234Z 34006KT 08/M07 A3035 RMK A01 T00841065  RH  034%=      5-min Rain = 0
KCO2 092235Z 35006KT 08/M07 A3035 RMK A01 T00841065  RH  034%=      5-min Rain = 0
KCO2 092236Z 00005KT 08/M07 A3035 RMK A01 T00841065  RH  034%=      5-min Rain = 0
KCO2 092237Z 35007KT 08/M06 A3035 RMK A01 T00841064  RH  035%=      5-min Rain = 0
KCO2 092238Z 35007KT 08/M06 A3035 RMK A01 T00841064  RH  035%=      5-min Rain = 0
KCO2 092239Z 36007KT 08/M06 A3035 RMK A01 T00831063  RH  035%=      5-min Rain = 0
KCO2 092240Z 36006KT 08/M06 A3035 RMK A01 T00831063  RH  035%=      5-min Rain = 0
KCO2 092241Z 35006KT 08/M06 A3035 RMK A01 T00831063  RH  035%=      5-min Rain = 0
KCO2 092242Z 33007KT 08/M06 A3035 RMK A01 T00831061  RH  036%=      5-min Rain = 0
KCO2 092243Z 34005KT 08/M06 A3035 RMK A01 T00831061  RH  035%=      5-min Rain = 0
KCO2 092244Z 35004KT 08/M06 A3035 RMK A01 T00831061  RH  035%=      5-min Rain = 0
KCO2 092245Z 34005KT 08/M06 A3035 RMK A01 T00821063  RH  035%=      5-min Rain = 0
KCO2 092246Z 35006KT 08/M06 A3035 RMK A01 T00821062  RH  035%=      5-min Rain = 0
KCO2 092247Z 35005KT 08/M06 A3035 RMK A01 T00821062  RH  036%=      5-min Rain = 0
KCO2 092248Z 34005KT 08/M06 A3035 RMK A01 T00821060  RH  036%=      5-min Rain = 0
KCO2 092249Z 34004KT 08/M06 A3035 RMK A01 T00821063  RH  035%=      5-min Rain = 0
KCO2 092250Z 35004KT 08/M06 A3035 RMK A01 T00821059  RH  036%=      5-min Rain = 0
KCO2 092251Z 35005KT 08/M06 A3035 RMK A01 T00821059  RH  036%=      5-min Rain = 0
KCO2 092252Z 36006KT 08/M06 A3035 RMK A01 T00831060  RH  036%=      5-min Rain = 0
KCO2 092253Z 35005KT 08/M06 A3035 RMK A01 T00821062  RH  035%=      5-min Rain = 0
KCO2 092254Z 35005KT 08/M06 A3035 RMK A01 T00821062  RH  035%=      5-min Rain = 0
KCO2 092255Z 35005KT 08/M06 A3035 RMK A01 T00811063  RH  035%=      5-min Rain = 0
KCO2 092256Z 36005KT 08/M06 A3035 RMK A01 T00811061  RH  036%=      5-min Rain = 0
KCO2 092257Z 00004KT 08/M06 A3036 RMK A01 T00811060  RH  036%=      5-min Rain = 0
KCO2 092258Z 36004KT 08/M06 A3036 RMK A01 T00811059  RH  036%=      5-min Rain = 0
KCO2 092259Z 35004KT 08/M06 A3036 RMK A01 T00811057  RH  037%=      5-min Rain = 0
KCO2 092300Z 35004KT 08/M06 A3036 RMK A01 T00811056  RH  037%=      5-min Rain = 0
KCO2 092301Z 35006KT 08/M06 A3036 RMK A01 T00811057  RH  037%=      5-min Rain = 0
KCO2 092302Z 34006KT 08/M06 A3036 RMK A01 T00811057  RH  037%=      5-min Rain = 0
KCO2 092303Z 34006KT 08/M06 A3036 RMK A01 T00801057  RH  037%=      5-min Rain = 0
KCO2 092304Z 35006KT 08/M06 A3036 RMK A01 T00801057  RH  037%=      5-min Rain = 0
KCO2 092305Z 34006KT 08/M06 A3036 RMK A01 T00791058  RH  037%=      5-min Rain = 0
KCO2 092306Z 34006KT 08/M06 A3036 RMK A01 T00791058  RH  037%=      5-min Rain = 0
KCO2 092307Z 35005KT 08/M06 A3036 RMK A01 T00791058  RH  037%=      5-min Rain = 0
KCO2 092308Z 34005KT 08/M06 A3036 RMK A01 T00781057  RH  038%=      5-min Rain = 0
KCO2 092309Z 34005KT 08/M06 A3036 RMK A01 T00781057  RH  038%=      5-min Rain = 0
KCO2 092310Z 34005KT 08/M06 A3036 RMK A01 T00781057  RH  038%=      5-min Rain = 0
KCO2 092311Z 34004KT 08/M06 A3036 RMK A01 T00771057  RH  038%=      5-min Rain = 0
KCO2 092312Z 35005KT 08/M06 A3036 RMK A01 T00771056  RH  039%=      5-min Rain = 0
KCO2 092313Z 34005KT 08/M06 A3036 RMK A01 T00761057  RH  038%=      5-min Rain = 0
KCO2 092314Z 34005KT 08/M06 A3036 RMK A01 T00761057  RH  038%=      5-min Rain = 0
KCO2 092315Z 34004KT 08/M06 A3036 RMK A01 T00761056  RH  039%=      5-min Rain = 0
KCO2 092316Z 35005KT 08/M06 A3036 RMK A01 T00751055  RH  039%=      5-min Rain = 0
KCO2 092317Z 34005KT 08/M06 A3036 RMK A01 T00751055  RH  039%=      5-min Rain = 0
KCO2 092318Z 35004KT 07/M05 A3036 RMK A01 T00741054  RH  040%=      5-min Rain = 0
KCO2 092319Z 35004KT 07/M05 A3036 RMK A01 T00731053  RH  040%=      5-min Rain = 0
KCO2 092320Z 35004KT 07/M05 A3036 RMK A01 T00721053  RH  041%=      5-min Rain = 0
KCO2 092321Z 35004KT 07/M05 A3036 RMK A01 T00721052  RH  041%=      5-min Rain = 0
KCO2 092322Z 35004KT 07/M05 A3036 RMK A01 T00711052  RH  041%=      5-min Rain = 0
KCO2 092323Z 35004KT 07/M05 A3036 RMK A01 T00711052  RH  041%=      5-min Rain = 0
KCO2 092324Z 36005KT 07/M05 A3036 RMK A01 T00701053  RH  041%=      5-min Rain = 0
KCO2 092325Z 36005KT 07/M05 A3036 RMK A01 T00691053  RH  041%=      5-min Rain = 0
KCO2 092326Z 36005KT 07/M05 A3036 RMK A01 T00681053  RH  042%=      5-min Rain = 0
KCO2 092327Z 00005KT 07/M05 A3036 RMK A01 T00681053  RH  042%=      5-min Rain = 0
KCO2 092328Z 00005KT 07/M05 A3036 RMK A01 T00671053  RH  042%=      5-min Rain = 0
KCO2 092329Z 01004KT 07/M05 A3036 RMK A01 T00661053  RH  042%=      5-min Rain = 0
KCO2 092330Z 01005KT 07/M05 A3036 RMK A01 T00651052  RH  043%=      5-min Rain = 0
KCO2 092331Z 01005KT 06/M05 A3036 RMK A01 T00641051  RH  043%=      5-min Rain = 0
KCO2 092332Z 00004KT 06/M05 A3036 RMK A01 T00631051  RH  044%=      5-min Rain = 0
KCO2 092333Z 00005KT 06/M05 A3036 RMK A01 T00631050  RH  044%=      5-min Rain = 0
KCO2 092334Z 00004KT 06/M05 A3036 RMK A01 T00621049  RH  045%=      5-min Rain = 0
KCO2 092335Z 00004KT 06/M05 A3036 RMK A01 T00611049  RH  045%=      5-min Rain = 0
KCO2 092336Z 01004KT 06/M05 A3036 RMK A01 T00601050  RH  045%=      5-min Rain = 0
KCO2 092337Z 01004KT 06/M05 A3036 RMK A01 T00601050  RH  045%=      5-min Rain = 0
KCO2 092338Z 01004KT 06/M05 A3036 RMK A01 T00581050  RH  046%=      5-min Rain = 0
KCO2 092339Z 01004KT 06/M05 A3036 RMK A01 T00581050  RH  046%=      5-min Rain = 0
KCO2 092340Z 01004KT 06/M05 A3036 RMK A01 T00571049  RH  046%=      5-min Rain = 0
KCO2 092341Z 01004KT 06/M05 A3036 RMK A01 T00561049  RH  047%=      5-min Rain = 0
KCO2 092342Z 01004KT 06/M05 A3036 RMK A01 T00551048  RH  047%=      5-min Rain = 0
KCO2 092343Z 01005KT 05/M05 A3036 RMK A01 T00531047  RH  048%=      5-min Rain = 0
KCO2 092344Z 02005KT 05/M05 A3036 RMK A01 T00521047  RH  049%=      5-min Rain = 0
KCO2 092345Z 01005KT 05/M05 A3036 RMK A01 T00511046  RH  050%=      5-min Rain = 0
KCO2 092346Z 01005KT 05/M04 A3036 RMK A01 T00511044  RH  050%=      5-min Rain = 0
KCO2 092347Z 01005KT 05/M04 A3036 RMK A01 T00501042  RH  051%=      5-min Rain = 0
KCO2 092348Z 01005KT 05/M04 A3036 RMK A01 T00491042  RH  052%=      5-min Rain = 0
KCO2 092349Z 01005KT 05/M04 A3036 RMK A01 T00481042  RH  052%=      5-min Rain = 0
KCO2 092350Z 01005KT 05/M04 A3036 RMK A01 T00471044  RH  052%=      5-min Rain = 0
KCO2 092351Z 01005KT 05/M04 A3036 RMK A01 T00471044  RH  052%=      5-min Rain = 0
KCO2 092352Z 01005KT 05/M04 A3036 RMK A01 T00471044  RH  052%=      5-min Rain = 0
KCO2 092353Z 02005KT 05/M04 A3036 RMK A01 T00461044  RH  052%=      5-min Rain = 0
KCO2 092354Z 02004KT 05/M04 A3036 RMK A01 T00451044  RH  052%=      5-min Rain = 0
KCO2 092355Z 02005KT 04/M05 A3036 RMK A01 T00431045  RH  053%=      5-min Rain = 0
KCO2 092356Z 02005KT 04/M05 A3036 RMK A01 T00421045  RH  053%=      5-min Rain = 0
KCO2 092357Z 02005KT 04/M05 A3036 RMK A01 T00421045  RH  053%=      5-min Rain = 0
KCO2 092358Z 03005KT 04/M05 A3036 RMK A01 T00401045  RH  054%=      5-min Rain = 0
KCO2 092359Z 03005KT 04/M05 A3036 RMK A01 T00391045  RH  054%=      5-min Rain = 0
KCO2 100000Z 02005KT 04/M05 A3036 RMK A01 T00391045  RH  055%=      5-min Rain = 0
KCO2 100001Z 02005KT 04/M05 A3036 RMK A01 T00381045  RH  055%=      5-min Rain = 0
KCO2 100002Z 02005KT 04/M05 A3036 RMK A01 T00381045  RH  055%=      5-min Rain = 0
KCO2 100003Z 02005KT 04/M05 A3036 RMK A01 T00381045  RH  054%=      5-min Rain = 0
KCO2 100004Z 02005KT 04/M05 A3036 RMK A01 T00381046  RH  054%=      5-min Rain = 0
KCO2 100005Z 02005KT 04/M05 A3036 RMK A01 T00381046  RH  054%=      5-min Rain = 0
KCO2 100006Z 03005KT 04/M05 A3036 RMK A01 T00381046  RH  054%=      5-min Rain = 0
KCO2 100007Z 03005KT 04/M05 A3036 RMK A01 T00371046  RH  055%=      5-min Rain = 0
KCO2 100008Z 03006KT 04/M05 A3036 RMK A01 T00361046  RH  055%=      5-min Rain = 0
KCO2 100009Z 03006KT 04/M05 A3037 RMK A01 T00361046  RH  055%=      5-min Rain = 0
KCO2 100010Z 02006KT 04/M05 A3037 RMK A01 T00351045  RH  056%=      5-min Rain = 0
KCO2 100011Z 03007KT 03/M04 A3037 RMK A01 T00341044  RH  056%=      5-min Rain = 0
KCO2 100012Z 03007KT 03/M04 A3037 RMK A01 T00331044  RH  057%=      5-min Rain = 0
KCO2 100013Z 03007KT 03/M05 A3037 RMK A01 T00331045  RH  057%=      5-min Rain = 0
KCO2 100014Z 03007KT 03/M05 A3037 RMK A01 T00331045  RH  057%=      5-min Rain = 0
KCO2 100015Z 04007KT 03/M05 A3037 RMK A01 T00321045  RH  057%=      5-min Rain = 0
KCO2 100016Z 04007KT 03/M05 A3037 RMK A01 T00321047  RH  056%=      5-min Rain = 0
KCO2 100017Z 04007KT 03/M05 A3037 RMK A01 T00321047  RH  056%=      5-min Rain = 0
KCO2 100018Z 04007KT 03/M05 A3037 RMK A01 T00311047  RH  056%=      5-min Rain = 0
KCO2 100019Z 04007KT 03/M05 A3037 RMK A01 T00321047  RH  056%=      5-min Rain = 0
KCO2 100020Z 04007KT 03/M05 A3037 RMK A01 T00321046  RH  056%=      5-min Rain = 0
KCO2 100021Z 04007KT 03/M05 A3037 RMK A01 T00321046  RH  057%=      5-min Rain = 0
KCO2 100022Z 04007KT 03/M05 A3037 RMK A01 T00321045  RH  057%=      5-min Rain = 0
KCO2 100023Z 04007KT 03/M05 A3037 RMK A01 T00311045  RH  057%=      5-min Rain = 0
KCO2 100024Z 04007KT 03/M05 A3037 RMK A01 T00311045  RH  058%=      5-min Rain = 0
KCO2 100025Z 04007KT 03/M05 A3037 RMK A01 T00301045  RH  058%=      5-min Rain = 0
KCO2 100026Z 04007KT 03/M05 A3037 RMK A01 T00291045  RH  058%=      5-min Rain = 0
KCO2 100027Z 04007KT 03/M04 A3037 RMK A01 T00281044  RH  059%=      5-min Rain = 0
KCO2 100028Z 04007KT 03/M04 A3037 RMK A01 T00271044  RH  059%=      5-min Rain = 0
KCO2 100029Z 04007KT 03/M04 A3037 RMK A01 T00271044  RH  060%=      5-min Rain = 0
KCO2 100030Z 04007KT 03/M04 A3037 RMK A01 T00271044  RH  060%=      5-min Rain = 0
KCO2 100031Z 04007KT 03/M04 A3037 RMK A01 T00271043  RH  060%=      5-min Rain = 0
KCO2 100032Z 04007KT 03/M04 A3037 RMK A01 T00271043  RH  060%=      5-min Rain = 0
KCO2 100033Z 04007KT 03/M04 A3037 RMK A01 T00271043  RH  060%=      5-min Rain = 0
KCO2 100034Z 04007KT 03/M04 A3037 RMK A01 T00271043  RH  060%=      5-min Rain = 0
KCO2 100035Z 04007KT 03/M04 A3037 RMK A01 T00271042  RH  060%=      5-min Rain = 0
KCO2 100036Z 04008KT 03/M04 A3037 RMK A01 T00261042  RH  061%=      5-min Rain = 0
KCO2 100037Z 04008KT 03/M04 A3037 RMK A01 T00261043  RH  061%=      5-min Rain = 0
KCO2 100038Z 04007KT 03/M04 A3037 RMK A01 T00261042  RH  061%=      5-min Rain = 0
KCO2 100039Z 04007KT 03/M04 A3037 RMK A01 T00261042  RH  061%=      5-min Rain = 0
KCO2 100040Z 04007KT 03/M04 A3037 RMK A01 T00261042  RH  061%=      5-min Rain = 0
KCO2 100041Z 04007KT 03/M04 A3037 RMK A01 T00261042  RH  061%=      5-min Rain = 0
KCO2 100042Z 04007KT 03/M04 A3037 RMK A01 T00261042  RH  061%=      5-min Rain = 0
KCO2 100043Z 04007KT 03/M04 A3037 RMK A01 T00261041  RH  061%=      5-min Rain = 0
KCO2 100044Z 04007KT 03/M04 A3037 RMK A01 T00261041  RH  061%=      5-min Rain = 0
KCO2 100045Z 04007KT 03/M04 A3037 RMK A01 T00251041  RH  061%=      5-min Rain = 0
KCO2 100046Z 04008KT 03/M04 A3037 RMK A01 T00251041  RH  062%=      5-min Rain = 0
KCO2 100047Z 04008KT 03/M04 A3037 RMK A01 T00251041  RH  062%=      5-min Rain = 0
KCO2 100048Z 04008KT 02/M04 A3037 RMK A01 T00241041  RH  062%=      5-min Rain = 0
KCO2 100049Z 04008KT 02/M04 A3037 RMK A01 T00241041  RH  062%=      5-min Rain = 0
KCO2 100050Z 04008KT 02/M04 A3037 RMK A01 T00241041  RH  062%=      5-min Rain = 0
KCO2 100051Z 04008KT 02/M04 A3037 RMK A01 T00241040  RH  063%=      5-min Rain = 0
KCO2 100052Z 04008KT 02/M04 A3037 RMK A01 T00231040  RH  063%=      5-min Rain = 0
KCO2 100053Z 04008KT 02/M04 A3037 RMK A01 T00231040  RH  063%=      5-min Rain = 0
KCO2 100054Z 04008KT 02/M04 A3037 RMK A01 T00241040  RH  063%=      5-min Rain = 0
KCO2 100055Z 04008KT 02/M04 A3037 RMK A01 T00241041  RH  063%=      5-min Rain = 0
KCO2 100056Z 04008KT 02/M04 A3037 RMK A01 T00241041  RH  062%=      5-min Rain = 0
KCO2 100057Z 04008KT 02/M04 A3037 RMK A01 T00241041  RH  062%=      5-min Rain = 0
KCO2 100058Z 04008KT 03/M04 A3037 RMK A01 T00251042  RH  061%=      5-min Rain = 0
KCO2 100059Z 04008KT 03/M04 A3037 RMK A01 T00251042  RH  061%=      5-min Rain = 0
KCO2 100100Z 04008KT 03/M04 A3037 RMK A01 T00251042  RH  061%=      5-min Rain = 0
KCO2 100101Z 04008KT 03/M04 A3037 RMK A01 T00251043  RH  061%=      5-min Rain = 0
KCO2 100102Z 04008KT 03/M04 A3037 RMK A01 T00251043  RH  061%=      5-min Rain = 0
KCO2 100103Z 04008KT 03/M04 A3037 RMK A01 T00251043  RH  061%=      5-min Rain = 0
KCO2 100104Z 04008KT 03/M04 A3037 RMK A01 T00251044  RH  061%=      5-min Rain = 0
KCO2 100105Z 04008KT 03/M04 A3037 RMK A01 T00251044  RH  060%=      5-min Rain = 0
KCO2 100106Z 04008KT 03/M04 A3037 RMK A01 T00251044  RH  060%=      5-min Rain = 0
KCO2 100107Z 04008KT 03/M04 A3037 RMK A01 T00251044  RH  060%=      5-min Rain = 0
KCO2 100108Z 04008KT 03/M04 A3037 RMK A01 T00251043  RH  060%=      5-min Rain = 0
KCO2 100109Z 04008KT 03/M04 A3037 RMK A01 T00251043  RH  060%=      5-min Rain = 0
KCO2 100110Z 04007KT 03/M04 A3037 RMK A01 T00261044  RH  060%=      5-min Rain = 0
KCO2 100111Z 04008KT 03/M04 A3037 RMK A01 T00261043  RH  060%=      5-min Rain = 0
KCO2 100112Z 04007KT 03/M04 A3037 RMK A01 T00261043  RH  060%=      5-min Rain = 0
KCO2 100113Z 04008KT 03/M04 A3037 RMK A01 T00261044  RH  060%=      5-min Rain = 0
KCO2 100114Z 04008KT 03/M04 A3037 RMK A01 T00261044  RH  060%=      5-min Rain = 0
KCO2 100115Z 04008KT 03/M04 A3037 RMK A01 T00261044  RH  060%=      5-min Rain = 0
KCO2 100116Z 04008KT 03/M04 A3037 RMK A01 T00261044  RH  060%=      5-min Rain = 0
KCO2 100117Z 04008KT 03/M04 A3037 RMK A01 T00261044  RH  060%=      5-min Rain = 0
KCO2 100118Z 04008KT 03/M04 A3037 RMK A01 T00271044  RH  060%=      5-min Rain = 0
KCO2 100119Z 04008KT 03/M05 A3038 RMK A01 T00271045  RH  059%=      5-min Rain = 0
KCO2 100120Z 04008KT 03/M05 A3038 RMK A01 T00271045  RH  059%=      5-min Rain = 0
KCO2 100121Z 04008KT 03/M05 A3038 RMK A01 T00271045  RH  059%=      5-min Rain = 0
KCO2 100122Z 04008KT 03/M05 A3038 RMK A01 T00271045  RH  059%=      5-min Rain = 0
KCO2 100123Z 04008KT 03/M05 A3038 RMK A01 T00271045  RH  059%=      5-min Rain = 0
KCO2 100124Z 04008KT 03/M05 A3038 RMK A01 T00271045  RH  059%=      5-min Rain = 0
KCO2 100125Z 04007KT 03/M04 A3038 RMK A01 T00271044  RH  059%=      5-min Rain = 0
KCO2 100126Z 04008KT 03/M05 A3038 RMK A01 T00271045  RH  059%=      5-min Rain = 0
KCO2 100127Z 04007KT 03/M05 A3038 RMK A01 T00261045  RH  059%=      5-min Rain = 0
KCO2 100128Z 04007KT 03/M05 A3038 RMK A01 T00261045  RH  059%=      5-min Rain = 0
KCO2 100129Z 04007KT 03/M05 A3038 RMK A01 T00261045  RH  059%=      5-min Rain = 0
KCO2 100130Z 04007KT 03/M05 A3038 RMK A01 T00261045  RH  059%=      5-min Rain = 0
KCO2 100131Z 04007KT 03/M05 A3038 RMK A01 T00261045  RH  059%=      5-min Rain = 0
KCO2 100132Z 04007KT 03/M05 A3038 RMK A01 T00261045  RH  059%=      5-min Rain = 0
KCO2 100133Z 04007KT 03/M05 A3038 RMK A01 T00251046  RH  059%=      5-min Rain = 0
KCO2 100134Z 04007KT 03/M05 A3038 RMK A01 T00251046  RH  059%=      5-min Rain = 0
KCO2 100135Z 04007KT 03/M05 A3038 RMK A01 T00251046  RH  060%=      5-min Rain = 0
KCO2 100136Z 04007KT 02/M05 A3038 RMK A01 T00241046  RH  060%=      5-min Rain = 0
KCO2 100137Z 04007KT 02/M05 A3038 RMK A01 T00241046  RH  060%=      5-min Rain = 0
KCO2 100138Z 04007KT 02/M05 A3038 RMK A01 T00241046  RH  060%=      5-min Rain = 0
KCO2 100139Z 04007KT 02/M05 A3038 RMK A01 T00241047  RH  060%=      5-min Rain = 0
KCO2 100140Z 04007KT 02/M05 A3038 RMK A01 T00231047  RH  060%=      5-min Rain = 0
KCO2 100141Z 04007KT 02/M05 A3038 RMK A01 T00231047  RH  060%=      5-min Rain = 0
KCO2 100142Z 04007KT 02/M05 A3038 RMK A01 T00231047  RH  060%=      5-min Rain = 0
KCO2 100143Z 04007KT 02/M05 A3038 RMK A01 T00221047  RH  060%=      5-min Rain = 0
KCO2 100144Z 04007KT 02/M05 A3038 RMK A01 T00221047  RH  060%=      5-min Rain = 0
KCO2 100145Z 04007KT 02/M05 A3038 RMK A01 T00221047  RH  060%=      5-min Rain = 0
KCO2 100146Z 04007KT 02/M05 A3038 RMK A01 T00221047  RH  060%=      5-min Rain = 0
KCO2 100147Z 04007KT 02/M05 A3038 RMK A01 T00221047  RH  060%=      5-min Rain = 0
KCO2 100148Z 04006KT 02/M05 A3038 RMK A01 T00211047  RH  060%=      5-min Rain = 0
KCO2 100149Z 04006KT 02/M05 A3038 RMK A01 T00211048  RH  060%=      5-min Rain = 0
KCO2 100150Z 04006KT 02/M05 A3038 RMK A01 T00211047  RH  060%=      5-min Rain = 0
KCO2 100151Z 04005KT 02/M05 A3038 RMK A01 T00211047  RH  060%=      5-min Rain = 0
KCO2 100152Z 04005KT 02/M05 A3038 RMK A01 T00211048  RH  061%=      5-min Rain = 0
KCO2 100153Z 03005KT 02/M05 A3038 RMK A01 T00201046  RH  061%=      5-min Rain = 0
KCO2 100154Z 03005KT 02/M05 A3038 RMK A01 T00191046  RH  062%=      5-min Rain = 0
KCO2 100155Z 03005KT 02/M05 A3038 RMK A01 T00191046  RH  062%=      5-min Rain = 0
KCO2 100156Z 03005KT 02/M05 A3038 RMK A01 T00181047  RH  062%=      5-min Rain = 0
KCO2 100157Z 03005KT 02/M05 A3038 RMK A01 T00181047  RH  062%=      5-min Rain = 0
KCO2 100158Z 03004KT 02/M05 A3038 RMK A01 T00171047  RH  063%=      5-min Rain = 0
KCO2 100159Z 03004KT 02/M05 A3038 RMK A01 T00161047  RH  063%=      5-min Rain = 0
KCO2 100200Z 03004KT 02/M05 A3038 RMK A01 T00151047  RH  063%=      5-min Rain = 0
KCO2 100201Z 03004KT 01/M05 A3038 RMK A01 T00141047  RH  064%=      5-min Rain = 0
KCO2 100202Z 03004KT 01/M05 A3038 RMK A01 T00131046  RH  065%=      5-min Rain = 0
KCO2 100203Z 03004KT 01/M05 A3038 RMK A01 T00121046  RH  065%=      5-min Rain = 0
KCO2 100204Z 03004KT 01/M05 A3038 RMK A01 T00111046  RH  066%=      5-min Rain = 0
KCO2 100205Z 03004KT 01/M05 A3038 RMK A01 T00111045  RH  066%=      5-min Rain = 0
KCO2 100206Z 03004KT 01/M05 A3038 RMK A01 T00111045  RH  066%=      5-min Rain = 0
KCO2 100207Z 03004KT 01/M04 A3038 RMK A01 T00101044  RH  067%=      5-min Rain = 0
KCO2 100208Z 03004KT 01/M04 A3038 RMK A01 T00101044  RH  067%=      5-min Rain = 0
KCO2 100209Z 03004KT 01/M04 A3038 RMK A01 T00091044  RH  068%=      5-min Rain = 0
KCO2 100210Z 03004KT 01/M04 A3038 RMK A01 T00091043  RH  068%=      5-min Rain = 0
KCO2 100211Z 03004KT 01/M04 A3038 RMK A01 T00081042  RH  069%=      5-min Rain = 0
KCO2 100212Z 03004KT 01/M04 A3038 RMK A01 T00071043  RH  069%=      5-min Rain = 0
KCO2 100213Z 03005KT 01/M04 A3038 RMK A01 T00061043  RH  070%=      5-min Rain = 0
KCO2 100214Z 03005KT 01/M04 A3038 RMK A01 T00051042  RH  071%=      5-min Rain = 0
KCO2 100215Z 03005KT 01/M04 A3038 RMK A01 T00051042  RH  071%=      5-min Rain = 0
KCO2 100216Z 03004KT 01/M04 A3038 RMK A01 T00051042  RH  071%=      5-min Rain = 0
KCO2 100217Z 03004KT 01/M04 A3038 RMK A01 T00051042  RH  071%=      5-min Rain = 0
KCO2 100218Z 03004KT 00/M04 A3038 RMK A01 T00041042  RH  071%=      5-min Rain = 0
KCO2 100219Z 03004KT 01/M04 A3038 RMK A01 T00051041  RH  071%=      5-min Rain = 0
KCO2 100220Z 03005KT 01/M04 A3038 RMK A01 T00051041  RH  072%=      5-min Rain = 0
KCO2 100221Z 04005KT 01/M04 A3038 RMK A01 T00051040  RH  072%=      5-min Rain = 0
KCO2 100222Z 03005KT 00/M04 A3038 RMK A01 T00041040  RH  072%=      5-min Rain = 0
KCO2 100223Z 03005KT 00/M04 A3038 RMK A01 T00041039  RH  073%=      5-min Rain = 0
KCO2 100224Z 04005KT 00/M04 A3038 RMK A01 T00041039  RH  073%=      5-min Rain = 0
KCO2 100225Z 04005KT 00/M04 A3039 RMK A01 T00031039  RH  073%=      5-min Rain = 0
KCO2 100226Z 03005KT 00/M04 A3039 RMK A01 T00031039  RH  074%=      5-min Rain = 0
KCO2 100227Z 03006KT 00/M04 A3039 RMK A01 T00041039  RH  073%=      5-min Rain = 0
KCO2 100228Z 03006KT 01/M04 A3039 RMK A01 T00051039  RH  073%=      5-min Rain = 0
KCO2 100229Z 03005KT 01/M04 A3039 RMK A01 T00051038  RH  073%=      5-min Rain = 0
KCO2 100230Z 03005KT 01/M04 A3039 RMK A01 T00061038  RH  073%=      5-min Rain = 0
KCO2 100231Z 02004KT 01/M04 A3039 RMK A01 T00061038  RH  072%=      5-min Rain = 0
KCO2 100232Z 03004KT 01/M04 A3039 RMK A01 T00061038  RH  072%=      5-min Rain = 0
KCO2 100233Z 02004KT 01/M04 A3039 RMK A01 T00051039  RH  072%=      5-min Rain = 0
KCO2 100234Z 02004KT 00/M04 A3039 RMK A01 T00041040  RH  072%=      5-min Rain = 0
KCO2 100235Z 03004KT 00/M04 A3039 RMK A01 T00041040  RH  072%=      5-min Rain = 0
KCO2 100236Z 03004KT 00/M04 A3039 RMK A01 T00041040  RH  072%=      5-min Rain = 0
KCO2 100237Z 03004KT 00/M04 A3039 RMK A01 T00031040  RH  073%=      5-min Rain = 0
KCO2 100238Z 03004KT 00/M04 A3039 RMK A01 T00031041  RH  073%=      5-min Rain = 0
KCO2 100239Z 02004KT 00/M04 A3039 RMK A01 T00031041  RH  072%=      5-min Rain = 0
KCO2 100240Z 02004KT 00/M04 A3039 RMK A01 T00041041  RH  072%=      5-min Rain = 0
KCO2 100241Z 02004KT 00/M04 A3039 RMK A01 T00031042  RH  072%=      5-min Rain = 0
KCO2 100242Z 02004KT 00/M04 A3039 RMK A01 T00041041  RH  072%=      5-min Rain = 0
KCO2 100243Z 02004KT 00/M04 A3039 RMK A01 T00041041  RH  072%=      5-min Rain = 0
KCO2 100244Z 03004KT 00/M04 A3039 RMK A01 T00041041  RH  072%=      5-min Rain = 0
KCO2 100245Z 03004KT 00/M04 A3039 RMK A01 T00041040  RH  072%=      5-min Rain = 0
KCO2 100246Z 03004KT 00/M04 A3038 RMK A01 T00041040  RH  073%=      5-min Rain = 0
KCO2 100247Z 04003KT 00/M04 A3038 RMK A01 T00031040  RH  073%=      5-min Rain = 0
KCO2 100248Z 04003KT 00/M04 A3039 RMK A01 T00031040  RH  073%=      5-min Rain = 0
KCO2 100249Z 04004KT 00/M04 A3039 RMK A01 T00031040  RH  073%=      5-min Rain = 0
KCO2 100250Z 04004KT 00/M04 A3039 RMK A01 T00041039  RH  073%=      5-min Rain = 0
KCO2 100251Z 03004KT 00/M04 A3039 RMK A01 T00041040  RH  072%=      5-min Rain = 0
KCO2 100252Z 03004KT 00/M04 A3039 RMK A01 T00041040  RH  072%=      5-min Rain = 0
KCO2 100253Z 03004KT 00/M04 A3039 RMK A01 T00041040  RH  072%=      5-min Rain = 0
KCO2 100254Z 03004KT 00/M04 A3039 RMK A01 T00041040  RH  073%=      5-min Rain = 0
KCO2 100255Z 03004KT 00/M04 A3039 RMK A01 T00021039  RH  073%=      5-min Rain = 0
KCO2 100256Z 03004KT 00/M04 A3039 RMK A01 T00011040  RH  074%=      5-min Rain = 0
KCO2 100257Z 04005KT 00/04 A3039 RMK A01 T00000-40  RH  075%=      5-min Rain = 0
KCO2 100258Z 04005KT 00/04 A304 RMK A01 T00-00-40  RH  075%=      5-min Rain = 0
KCO2 100259Z 04005KT 00/04 A304 RMK A01 T00-00-39  RH  075%=      5-min Rain = 0
KCO2 100300Z 04005KT M00/M04 A304 RMK A01 T10011040  RH  075%=      5-min Rain = 0
KCO2 100301Z 04005KT M00/M04 A304 RMK A01 T10011039  RH  075%=      5-min Rain = 0
KCO2 100302Z 04004KT M00/M04 A3039 RMK A01 T10011039  RH  075%=      5-min Rain = 0
KCO2 100303Z 04004KT M00/M04 A3039 RMK A01 T10011039  RH  076%=      5-min Rain = 0
KCO2 100304Z 04004KT M00/M04 A304 RMK A01 T10011038  RH  076%=      5-min Rain = 0
KCO2 100305Z 03004KT M00/M04 A304 RMK A01 T10011038  RH  076%=      5-min Rain = 0
KCO2 100306Z 03004KT 00/04 A304 RMK A01 T00-00-38  RH  076%=      5-min Rain = 0
KCO2 100307Z 03005KT 00/04 A304 RMK A01 T00000-37  RH  076%=      5-min Rain = 0
KCO2 100308Z 03004KT 00/04 A304 RMK A01 T00000-37  RH  076%=      5-min Rain = 0
KCO2 100309Z 02004KT 00/04 A304 RMK A01 T00000-37  RH  076%=      5-min Rain = 0
KCO2 100310Z 02004KT 00/04 A304 RMK A01 T00000-37  RH  076%=      5-min Rain = 0
KCO2 100311Z 02004KT 00/04 A304 RMK A01 T00000-38  RH  076%=      5-min Rain = 0
KCO2 100312Z 02004KT 00/04 A304 RMK A01 T00000-38  RH  076%=      5-min Rain = 0
KCO2 100313Z 02004KT 00/04 A304 RMK A01 T00000-38  RH  075%=      5-min Rain = 0
KCO2 100314Z 02004KT 00/M04 A304 RMK A01 T00011038  RH  075%=      5-min Rain = 0
KCO2 100315Z 02004KT 00/04 A304 RMK A01 T00000-38  RH  075%=      5-min Rain = 0
KCO2 100316Z 01004KT 00/04 A304 RMK A01 T00000-39  RH  075%=      5-min Rain = 0
KCO2 100317Z 01004KT 00/04 A304 RMK A01 T00-00-38  RH  076%=      5-min Rain = 0
KCO2 100318Z 01004KT M00/M04 A304 RMK A01 T10011038  RH  076%=      5-min Rain = 0
KCO2 100319Z 00004KT M00/M04 A304 RMK A01 T10011038  RH  076%=      5-min Rain = 0
KCO2 100320Z 36004KT M00/M04 A304 RMK A01 T10011038  RH  076%=      5-min Rain = 0
KCO2 100321Z 35004KT M00/M04 A304 RMK A01 T10021038  RH  077%=      5-min Rain = 0
KCO2 100322Z 35004KT M00/M04 A304 RMK A01 T10021038  RH  077%=      5-min Rain = 0
KCO2 100323Z 35004KT M00/M04 A304 RMK A01 T10031038  RH  077%=      5-min Rain = 0
KCO2 100324Z 35004KT M00/M04 A304 RMK A01 T10041038  RH  078%=      5-min Rain = 0
KCO2 100325Z 34004KT M00/M04 A304 RMK A01 T10041038  RH  078%=      5-min Rain = 0
KCO2 100326Z 34004KT M01/M04 A304 RMK A01 T10051038  RH  078%=      5-min Rain = 0
KCO2 100327Z 34003KT M01/M04 A304 RMK A01 T10061039  RH  078%=      5-min Rain = 0
KCO2 100328Z 34003KT M01/M04 A304 RMK A01 T10071040  RH  078%=      5-min Rain = 0
KCO2 100329Z 34003KT M01/M04 A304 RMK A01 T10081040  RH  079%=      5-min Rain = 0
KCO2 100330Z 34003KT M01/M04 A304 RMK A01 T10081039  RH  079%=      5-min Rain = 0
KCO2 100331Z 34003KT M01/M04 A304 RMK A01 T10101040  RH  080%=      5-min Rain = 0
KCO2 100332Z 34003KT M01/M04 A304 RMK A01 T10111041  RH  080%=      5-min Rain = 0
KCO2 100333Z 35003KT M01/M04 A304 RMK A01 T10121041  RH  081%=      5-min Rain = 0
KCO2 100334Z 35003KT M01/M04 A304 RMK A01 T10121041  RH  081%=      5-min Rain = 0
KCO2 100335Z 35003KT M01/M04 A304 RMK A01 T10131041  RH  082%=      5-min Rain = 0
KCO2 100336Z 35003KT M01/M04 A304 RMK A01 T10131040  RH  082%=      5-min Rain = 0
KCO2 100337Z 35003KT M01/M04 A304 RMK A01 T10131039  RH  083%=      5-min Rain = 0
KCO2 100338Z 34003KT M01/M04 A304 RMK A01 T10141039  RH  083%=      5-min Rain = 0
KCO2 100339Z 34003KT M01/M04 A304 RMK A01 T10141038  RH  083%=      5-min Rain = 0
KCO2 100340Z 34003KT M01/M04 A304 RMK A01 T10131036  RH  084%=      5-min Rain = 0
KCO2 100341Z 34003KT M01/M04 A304 RMK A01 T10121035  RH  084%=      5-min Rain = 0
KCO2 100342Z 34003KT M01/M03 A304 RMK A01 T10111034  RH  084%=      5-min Rain = 0
KCO2 100343Z 35003KT M01/M03 A304 RMK A01 T10111034  RH  084%=      5-min Rain = 0
KCO2 100344Z 35004KT M01/M03 A304 RMK A01 T10111034  RH  084%=      5-min Rain = 0
KCO2 100345Z 36004KT M01/M03 A304 RMK A01 T10111034  RH  084%=      5-min Rain = 0
KCO2 100346Z 00003KT M01/M04 A304 RMK A01 T10101035  RH  084%=      5-min Rain = 0
KCO2 100347Z 00003KT M01/M04 A304 RMK A01 T10101035  RH  083%=      5-min Rain = 0
KCO2 100348Z 00003KT M01/M04 A304 RMK A01 T10101035  RH  083%=      5-min Rain = 0
KCO2 100349Z 01003KT M01/M03 A304 RMK A01 T10101034  RH  083%=      5-min Rain = 0
KCO2 100350Z 01003KT M01/M03 A304 RMK A01 T10091034  RH  084%=      5-min Rain = 0
KCO2 100351Z 01003KT M01/M03 A304 RMK A01 T10091033  RH  083%=      5-min Rain = 0
KCO2 100352Z 01003KT M01/M03 A304 RMK A01 T10081033  RH  083%=      5-min Rain = 0
KCO2 100353Z 01003KT M01/M03 A304 RMK A01 T10081033  RH  083%=      5-min Rain = 0
KCO2 100354Z 01003KT M01/M03 A304 RMK A01 T10081032  RH  083%=      5-min Rain = 0
KCO2 100355Z 01003KT M01/M03 A304 RMK A01 T10071032  RH  083%=      5-min Rain = 0
KCO2 100356Z 01003KT M01/M03 A304 RMK A01 T10071032  RH  083%=      5-min Rain = 0
KCO2 100357Z 01003KT M01/M03 A304 RMK A01 T10071032  RH  083%=      5-min Rain = 0
KCO2 100358Z 01003KT M01/M03 A304 RMK A01 T10071032  RH  083%=      5-min Rain = 0
KCO2 100359Z 01004KT M01/M03 A304 RMK A01 T10071032  RH  083%=      5-min Rain = 0
KCO2 100400Z 01004KT M01/M03 A304 RMK A01 T10071032  RH  083%=      5-min Rain = 0
KCO2 100401Z 01004KT M01/M03 A3041 RMK A01 T10071033  RH  083%=      5-min Rain = 0
KCO2 100402Z 01004KT M01/M03 A3041 RMK A01 T10081033  RH  083%=      5-min Rain = 0
KCO2 100403Z 01004KT M01/M03 A304 RMK A01 T10091034  RH  084%=      5-min Rain = 0
KCO2 100404Z 01004KT M01/M03 A304 RMK A01 T10101033  RH  084%=      5-min Rain = 0
KCO2 100405Z 01004KT M01/M03 A304 RMK A01 T10101033  RH  085%=      5-min Rain = 0
KCO2 100406Z 01003KT M01/M03 A304 RMK A01 T10101032  RH  085%=      5-min Rain = 0
KCO2 100407Z 01003KT M01/M03 A304 RMK A01 T10101032  RH  085%=      5-min Rain = 0
KCO2 100408Z 00003KT M01/M03 A304 RMK A01 T10101032  RH  086%=      5-min Rain = 0
KCO2 100409Z 00003KT M01/M03 A304 RMK A01 T10111032  RH  086%=      5-min Rain = 0
KCO2 100410Z 36003KT M01/M03 A304 RMK A01 T10101031  RH  086%=      5-min Rain = 0
KCO2 100411Z 35003KT M01/M03 A304 RMK A01 T10101031  RH  086%=      5-min Rain = 0
KCO2 100412Z 35003KT M01/M03 A304 RMK A01 T10101030  RH  086%=      5-min Rain = 0
KCO2 100413Z 34004KT M01/M03 A3041 RMK A01 T10101031  RH  085%=      5-min Rain = 0
KCO2 100414Z 34004KT M01/M03 A3041 RMK A01 T10101032  RH  085%=      5-min Rain = 0
KCO2 100415Z 34004KT M01/M03 A304 RMK A01 T10111033  RH  085%=      5-min Rain = 0
KCO2 100416Z 33003KT M01/M03 A304 RMK A01 T10111033  RH  085%=      5-min Rain = 0
KCO2 100417Z 33003KT M01/M03 A304 RMK A01 T10121034  RH  085%=      5-min Rain = 0
KCO2 100418Z 33003KT M01/M03 A304 RMK A01 T10121034  RH  086%=      5-min Rain = 0
KCO2 100419Z 33003KT M01/M03 A304 RMK A01 T10121033  RH  086%=      5-min Rain = 0
KCO2 100420Z 32003KT M01/M03 A304 RMK A01 T10121032  RH  086%=      5-min Rain = 0
KCO2 100421Z 32003KT M01/M03 A304 RMK A01 T10111031  RH  086%=      5-min Rain = 0
KCO2 100422Z 33003KT M01/M03 A304 RMK A01 T10101030  RH  086%=      5-min Rain = 0
KCO2 100423Z 33003KT M01/M03 A304 RMK A01 T10091030  RH  085%=      5-min Rain = 0
KCO2 100424Z 33003KT M01/M03 A304 RMK A01 T10091031  RH  085%=      5-min Rain = 0
KCO2 100425Z 32003KT M01/M03 A304 RMK A01 T10091032  RH  084%=      5-min Rain = 0
KCO2 100426Z 32003KT M01/M03 A304 RMK A01 T10091033  RH  084%=      5-min Rain = 0
KCO2 100427Z 32003KT M01/M03 A304 RMK A01 T10101033  RH  084%=      5-min Rain = 0
KCO2 100428Z 33003KT M01/M03 A304 RMK A01 T10101033  RH  084%=      5-min Rain = 0
KCO2 100429Z 33003KT M01/M03 A304 RMK A01 T10101033  RH  084%=      5-min Rain = 0
KCO2 100430Z 34003KT M01/M03 A304 RMK A01 T10111034  RH  085%=      5-min Rain = 0
KCO2 100431Z 34003KT M01/M03 A304 RMK A01 T10111034  RH  085%=      5-min Rain = 0
KCO2 100432Z 34003KT M01/M03 A304 RMK A01 T10111034  RH  085%=      5-min Rain = 0
KCO2 100433Z 34003KT M01/M03 A304 RMK A01 T10111034  RH  084%=      5-min Rain = 0
KCO2 100434Z 34003KT M01/M03 A304 RMK A01 T10111034  RH  084%=      5-min Rain = 0
KCO2 100435Z 34004KT M01/M03 A3041 RMK A01 T10111034  RH  085%=      5-min Rain = 0
KCO2 100436Z 34004KT M01/M03 A3041 RMK A01 T10121034  RH  085%=      5-min Rain = 0
KCO2 100437Z 34004KT M01/M04 A3041 RMK A01 T10121035  RH  084%=      5-min Rain = 0
KCO2 100438Z 34004KT M01/M04 A3041 RMK A01 T10121035  RH  084%=      5-min Rain = 0
KCO2 100439Z 33004KT M01/M04 A304 RMK A01 T10131037  RH  084%=      5-min Rain = 0
KCO2 100440Z 33003KT M01/M04 A304 RMK A01 T10141037  RH  085%=      5-min Rain = 0
KCO2 100441Z 33003KT M01/M04 A304 RMK A01 T10141036  RH  085%=      5-min Rain = 0
KCO2 100442Z 33003KT M01/M04 A304 RMK A01 T10141035  RH  086%=      5-min Rain = 0
KCO2 100443Z 33003KT M01/M03 A304 RMK A01 T10141034  RH  086%=      5-min Rain = 0
KCO2 100444Z 33003KT M01/M03 A304 RMK A01 T10131034  RH  086%=      5-min Rain = 0
KCO2 100445Z 33003KT M01/M03 A304 RMK A01 T10131033  RH  086%=      5-min Rain = 0
KCO2 100446Z 33003KT M01/M03 A304 RMK A01 T10131033  RH  086%=      5-min Rain = 0
KCO2 100447Z 33003KT M01/M03 A304 RMK A01 T10131034  RH  086%=      5-min Rain = 0
KCO2 100448Z 33003KT M01/M04 A304 RMK A01 T10141035  RH  085%=      5-min Rain = 0
KCO2 100449Z 33003KT M02/M04 A304 RMK A01 T10151036  RH  085%=      5-min Rain = 0
KCO2 100450Z 32003KT M02/M04 A304 RMK A01 T10151036  RH  086%=      5-min Rain = 0
KCO2 100451Z 33004KT M02/M04 A304 RMK A01 T10161036  RH  086%=      5-min Rain = 0
KCO2 100452Z 33004KT M02/M04 A304 RMK A01 T10161036  RH  086%=      5-min Rain = 0
KCO2 100453Z 33004KT M02/M04 A304 RMK A01 T10161036  RH  087%=      5-min Rain = 0
KCO2 100454Z 34004KT M02/M04 A304 RMK A01 T10161036  RH  086%=      5-min Rain = 0
KCO2 100455Z 34004KT M02/M04 A3041 RMK A01 T10161036  RH  086%=      5-min Rain = 0
KCO2 100456Z 33004KT M02/M04 A3041 RMK A01 T10171037  RH  086%=      5-min Rain = 0
KCO2 100457Z 33004KT M02/M04 A3041 RMK A01 T10181038  RH  086%=      5-min Rain = 0
KCO2 100458Z 33004KT M02/M04 A304 RMK A01 T10191039  RH  086%=      5-min Rain = 0
KCO2 100459Z 33004KT M02/M04 A304 RMK A01 T10191039  RH  086%=      5-min Rain = 0
KCO2 100500Z 33004KT M02/M04 A304 RMK A01 T10201040  RH  086%=      5-min Rain = 0
KCO2 100501Z 32004KT M02/M04 A304 RMK A01 T10191039  RH  087%=      5-min Rain = 0
KCO2 100502Z 32004KT M02/M04 A304 RMK A01 T10191038  RH  087%=      5-min Rain = 0
KCO2 100503Z 32004KT M02/M04 A3041 RMK A01 T10171036  RH  087%=      5-min Rain = 0
KCO2 100504Z 32004KT M02/M03 A3041 RMK A01 T10151033  RH  087%=      5-min Rain = 0
KCO2 100505Z 32003KT M01/M03 A3041 RMK A01 T10131032  RH  087%=      5-min Rain = 0
KCO2 100506Z 31003KT M01/M03 A3041 RMK A01 T10121034  RH  085%=      5-min Rain = 0
KCO2 100507Z 31003KT M01/M03 A3041 RMK A01 T10121034  RH  085%=      5-min Rain = 0
KCO2 100508Z 30003KT M01/M03 A3041 RMK A01 T10111033  RH  085%=      5-min Rain = 0
KCO2 100509Z 28002KT M01/M03 A304 RMK A01 T10111032  RH  085%=      5-min Rain = 0
KCO2 100510Z 27002KT M01/M03 A304 RMK A01 T10111033  RH  085%=      5-min Rain = 0
KCO2 100511Z 28002KT M01/M03 A304 RMK A01 T10111033  RH  085%=      5-min Rain = 0
KCO2 100512Z 28002KT M01/M03 A304 RMK A01 T10111032  RH  086%=      5-min Rain = 0
KCO2 100513Z 27002KT M01/M03 A304 RMK A01 T10111031  RH  086%=      5-min Rain = 0
KCO2 100514Z 26003KT M01/M03 A304 RMK A01 T10101030  RH  086%=      5-min Rain = 0
KCO2 100515Z 26003KT M01/M03 A304 RMK A01 T10101030  RH  086%=      5-min Rain = 0
KCO2 100516Z 27003KT M01/M03 A304 RMK A01 T10101030  RH  086%=      5-min Rain = 0
KCO2 100517Z 27003KT M01/M03 A304 RMK A01 T10101031  RH  086%=      5-min Rain = 0
KCO2 100518Z 26003KT M01/M03 A304 RMK A01 T10111032  RH  086%=      5-min Rain = 0
KCO2 100519Z 26003KT M01/M03 A304 RMK A01 T10121033  RH  086%=      5-min Rain = 0
KCO2 100520Z 26003KT M01/M03 A304 RMK A01 T10131033  RH  086%=      5-min Rain = 0
KCO2 100521Z 26004KT M01/M03 A304 RMK A01 T10131033  RH  086%=      5-min Rain = 0
KCO2 100522Z 26003KT M01/M03 A304 RMK A01 T10131032  RH  087%=      5-min Rain = 0
KCO2 100523Z 26003KT M01/M03 A304 RMK A01 T10131032  RH  087%=      5-min Rain = 0
KCO2 100524Z 26003KT M01/M03 A304 RMK A01 T10131031  RH  087%=      5-min Rain = 0
KCO2 100525Z 26003KT M01/M03 A304 RMK A01 T10121031  RH  087%=      5-min Rain = 0
KCO2 100526Z 27003KT M01/M03 A304 RMK A01 T10121031  RH  087%=      5-min Rain = 0
KCO2 100527Z 27003KT M01/M03 A304 RMK A01 T10121031  RH  087%=      5-min Rain = 0
KCO2 100528Z 27003KT M01/M03 A304 RMK A01 T10111031  RH  087%=      5-min Rain = 0
KCO2 100529Z 27003KT M01/M03 A304 RMK A01 T10111031  RH  087%=      5-min Rain = 0
KCO2 100530Z 28003KT M01/M03 A304 RMK A01 T10111031  RH  086%=      5-min Rain = 0
KCO2 100531Z 28003KT M01/M03 A304 RMK A01 T10111031  RH  086%=      5-min Rain = 0
KCO2 100532Z 28003KT M01/M03 A304 RMK A01 T10111031  RH  086%=      5-min Rain = 0
KCO2 100533Z 29003KT M01/M03 A304 RMK A01 T10121032  RH  086%=      5-min Rain = 0
KCO2 100534Z 29003KT M01/M03 A304 RMK A01 T10121031  RH  087%=      5-min Rain = 0
KCO2 100535Z 29003KT M01/M03 A304 RMK A01 T10121031  RH  087%=      5-min Rain = 0
KCO2 100536Z 29003KT M01/M03 A304 RMK A01 T10121032  RH  086%=      5-min Rain = 0
KCO2 100537Z 30003KT M01/M03 A304 RMK A01 T10131033  RH  086%=      5-min Rain = 0
KCO2 100538Z 30003KT M01/M03 A304 RMK A01 T10131033  RH  086%=      5-min Rain = 0
KCO2 100539Z 30003KT M01/M03 A304 RMK A01 T10131033  RH  086%=      5-min Rain = 0
KCO2 100540Z 30003KT M01/M03 A304 RMK A01 T10131033  RH  087%=      5-min Rain = 0
KCO2 100541Z 30003KT M01/M03 A304 RMK A01 T10131032  RH  087%=      5-min Rain = 0
KCO2 100542Z 29002KT M01/M03 A304 RMK A01 T10141032  RH  087%=      5-min Rain = 0
KCO2 100543Z 29002KT M01/M03 A304 RMK A01 T10131032  RH  087%=      5-min Rain = 0
KCO2 100544Z 29003KT M01/M03 A304 RMK A01 T10131031  RH  088%=      5-min Rain = 0
KCO2 100545Z 29003KT M01/M03 A304 RMK A01 T10131030  RH  088%=      5-min Rain = 0
KCO2 100546Z 29003KT M01/M03 A304 RMK A01 T10121030  RH  088%=      5-min Rain = 0
KCO2 100547Z 28002KT M01/M03 A304 RMK A01 T10121030  RH  088%=      5-min Rain = 0
KCO2 100548Z 28002KT M01/M03 A304 RMK A01 T10111029  RH  087%=      5-min Rain = 0
KCO2 100549Z 28002KT M01/M03 A304 RMK A01 T10111030  RH  087%=      5-min Rain = 0
KCO2 100550Z 28002KT M01/M03 A304 RMK A01 T10111030  RH  087%=      5-min Rain = 0
KCO2 100551Z 27003KT M01/M03 A304 RMK A01 T10101030  RH  087%=      5-min Rain = 0
KCO2 100552Z 27003KT M01/M03 A304 RMK A01 T10111030  RH  086%=      5-min Rain = 0
KCO2 100553Z 27003KT M01/M03 A304 RMK A01 T10111031  RH  086%=      5-min Rain = 0
KCO2 100554Z 28002KT M01/M03 A304 RMK A01 T10101031  RH  086%=      5-min Rain = 0
KCO2 100555Z 28002KT M01/M03 A304 RMK A01 T10101031  RH  086%=      5-min Rain = 0
KCO2 100556Z 28002KT M01/M03 A304 RMK A01 T10111031  RH  086%=      5-min Rain = 0
KCO2 100557Z 28003KT M01/M03 A304 RMK A01 T10111031  RH  086%=      5-min Rain = 0
KCO2 100558Z 29003KT M01/M03 A304 RMK A01 T10111031  RH  086%=      5-min Rain = 0
KCO2 100559Z 29003KT M01/M03 A304 RMK A01 T10111031  RH  087%=      5-min Rain = 0

Page generated in 0.1028 seconds.